Search the data

BODC Cruise Metadata Report for Planet cruise 10/78

Introduction

This report collates information from the BODC cruise inventory and oceanographic databases. It presents

Cruise Inventory Information

Long name Planet cruise 10/78
Short name 10/78
Objectives and Narrative
Ship Planet
Departure Port
Departure Date 1978-08-15
Arrival Port
Arrival Date 1978-09-14
Principal Scientist(s) Gerold Siedler (Institute of Marine Sciences, Kiel)
Responsible Organisation LRFA
Associated Project(s)
IHB Sea Areas Visited North Sea, North East Atlantic Ocean (limit 40W)
Marsden Squares Visited 181/182/216
Work Area Description
Work Area Bounding Polygon 50N,20W; 60N,20W; 60N,10E; 50N,10E; 50N,20W
Southern Limit 50N
Northern Limit 60N
Western Limit 20W
Eastern Limit 10E

Cruise Inventory Datasets

Physical oceanography  
Bathythermograph Quantity: number of profiles = 65
Description:  
CTD stations Quantity: number of stations = 128
Description:  
Current meters Quantity: 7
Description:  
Meteorology  
Routine standard measurements Quantity: 39
Description:  

Cruise Inventory Mooring/Buoy Operations

No information on datasets is currently available

Summary of BODC Data Holdings for the Cruise

National Oceanographic Database

Summary

# Series Instrument Description Parameters
1128 CTD/STD cast Salinity of the water column
Temperature of the water column
Vertical spatial coordinates

Note: Parameter terms are taken from the BODC Parameter Discovery Vocabulary XML (SKOS)

Full List

BODC Reference Instrument Description Date/Time Location  
162938 CTD/STD cast 1978-08-26 16:48Z 58° 57' N, 12° 25' W Click for more
162951 CTD/STD cast 1978-08-26 17:00Z 58° 57' N, 12° 25' W Click for more
162963 CTD/STD cast 1978-08-26 18:29Z 58° 58' N, 12° 25' W Click for more
162975 CTD/STD cast 1978-08-26 18:45Z 58° 58' N, 12° 25' W Click for more
162987 CTD/STD cast 1978-08-26 19:00Z 58° 58' N, 12° 25' W Click for more
162999 CTD/STD cast 1978-08-26 19:15Z 58° 58' N, 12° 25' W Click for more
163002 CTD/STD cast 1978-08-26 19:30Z 58° 58' N, 12° 25' W Click for more
163014 CTD/STD cast 1978-08-26 20:15Z 58° 58' N, 12° 26' W Click for more
163026 CTD/STD cast 1978-08-26 20:20Z 58° 58' N, 12° 26' W Click for more
163038 CTD/STD cast 1978-08-26 20:46Z 58° 58' N, 12° 26' W Click for more
163051 CTD/STD cast 1978-08-26 21:00Z 58° 58' N, 12° 26' W Click for more
163063 CTD/STD cast 1978-08-26 21:17Z 58° 57' N, 12° 25' W Click for more
163075 CTD/STD cast 1978-08-26 21:30Z 58° 57' N, 12° 25' W Click for more
163087 CTD/STD cast 1978-08-26 21:45Z 58° 57' N, 12° 25' W Click for more
163099 CTD/STD cast 1978-08-26 22:30Z 58° 57' N, 12° 24' W Click for more
163106 CTD/STD cast 1978-08-26 22:46Z 58° 57' N, 12° 24' W Click for more
163118 CTD/STD cast 1978-08-26 23:00Z 58° 57' N, 12° 24' W Click for more
163131 CTD/STD cast 1978-08-26 23:15Z 58° 57' N, 12° 24' W Click for more
163143 CTD/STD cast 1978-08-26 23:30Z 58° 57' N, 12° 24' W Click for more
163155 CTD/STD cast 1978-08-26 23:45Z 58° 57' N, 12° 24' W Click for more
163167 CTD/STD cast 1978-08-27 00:00Z 58° 57' N, 12° 24' W Click for more
163179 CTD/STD cast 1978-08-27 00:15Z 58° 57' N, 12° 24' W Click for more
163180 CTD/STD cast 1978-08-27 00:31Z 58° 57' N, 12° 24' W Click for more
163192 CTD/STD cast 1978-08-27 00:45Z 58° 58' N, 12° 25' W Click for more
163211 CTD/STD cast 1978-08-27 01:00Z 58° 58' N, 12° 25' W Click for more
163223 CTD/STD cast 1978-08-27 01:15Z 58° 58' N, 12° 25' W Click for more
163235 CTD/STD cast 1978-08-27 01:30Z 58° 58' N, 12° 25' W Click for more
163247 CTD/STD cast 1978-08-27 02:00Z 58° 58' N, 12° 25' W Click for more
163259 CTD/STD cast 1978-08-27 02:15Z 58° 58' N, 12° 25' W Click for more
163260 CTD/STD cast 1978-08-27 02:30Z 58° 58' N, 12° 25' W Click for more
163272 CTD/STD cast 1978-08-27 03:01Z 58° 58' N, 12° 24' W Click for more
163284 CTD/STD cast 1978-08-27 03:45Z 58° 58' N, 12° 24' W Click for more
163296 CTD/STD cast 1978-08-27 04:00Z 58° 58' N, 12° 24' W Click for more
163303 CTD/STD cast 1978-08-27 04:15Z 58° 58' N, 12° 24' W Click for more
163315 CTD/STD cast 1978-08-27 04:45Z 58° 58' N, 12° 24' W Click for more
163327 CTD/STD cast 1978-08-27 05:00Z 58° 58' N, 12° 24' W Click for more
163339 CTD/STD cast 1978-08-27 05:15Z 58° 58' N, 12° 24' W Click for more
163340 CTD/STD cast 1978-08-27 05:30Z 58° 57' N, 12° 24' W Click for more
163352 CTD/STD cast 1978-08-27 05:47Z 58° 57' N, 12° 24' W Click for more
163364 CTD/STD cast 1978-08-27 06:00Z 58° 58' N, 12° 24' W Click for more
163376 CTD/STD cast 1978-08-27 06:15Z 58° 58' N, 12° 24' W Click for more
163388 CTD/STD cast 1978-08-27 06:30Z 58° 58' N, 12° 24' W Click for more
163407 CTD/STD cast 1978-08-27 06:45Z 58° 58' N, 12° 24' W Click for more
163419 CTD/STD cast 1978-08-27 07:00Z 58° 58' N, 12° 25' W Click for more
163420 CTD/STD cast 1978-08-27 07:30Z 59° 0' N, 12° 24' W Click for more
163432 CTD/STD cast 1978-08-27 07:55Z 59° 1' N, 12° 25' W Click for more
163444 CTD/STD cast 1978-08-27 08:28Z 59° 3' N, 12° 24' W Click for more
163456 CTD/STD cast 1978-08-27 08:47Z 59° 2' N, 12° 28' W Click for more
163468 CTD/STD cast 1978-08-27 09:10Z 59° 2' N, 12° 30' W Click for more
163481 CTD/STD cast 1978-08-27 09:35Z 59° 3' N, 12° 34' W Click for more
163493 CTD/STD cast 1978-08-27 10:00Z 59° 3' N, 12° 30' W Click for more
163500 CTD/STD cast 1978-08-27 10:25Z 59° 1' N, 12° 36' W Click for more
163512 CTD/STD cast 1978-08-27 10:50Z 59° 0' N, 12° 36' W Click for more
163524 CTD/STD cast 1978-08-27 11:15Z 58° 58' N, 12° 36' W Click for more
163536 CTD/STD cast 1978-08-27 11:40Z 58° 58' N, 12° 33' W Click for more
163548 CTD/STD cast 1978-08-27 12:05Z 58° 58' N, 12° 34' W Click for more
163561 CTD/STD cast 1978-08-27 12:30Z 58° 58' N, 12° 34' W Click for more
163573 CTD/STD cast 1978-08-27 12:55Z 58° 58' N, 12° 28' W Click for more
163585 CTD/STD cast 1978-08-27 13:30Z 58° 58' N, 12° 28' W Click for more
163597 CTD/STD cast 1978-08-27 13:56Z 58° 58' N, 12° 28' W Click for more
163604 CTD/STD cast 1978-08-27 14:20Z 58° 58' N, 12° 28' W Click for more
163616 CTD/STD cast 1978-08-27 14:45Z 59° 3' N, 12° 25' W Click for more
163628 CTD/STD cast 1978-08-27 15:10Z 59° 3' N, 12° 25' W Click for more
163641 CTD/STD cast 1978-08-27 15:35Z 59° 2' N, 12° 29' W Click for more
163653 CTD/STD cast 1978-08-27 16:00Z 59° 3' N, 12° 36' W Click for more
163665 CTD/STD cast 1978-08-27 16:25Z 59° 1' N, 12° 36' W Click for more
163677 CTD/STD cast 1978-08-27 16:50Z 59° 0' N, 12° 36' W Click for more
163689 CTD/STD cast 1978-08-27 17:15Z 58° 58' N, 12° 36' W Click for more
163690 CTD/STD cast 1978-08-27 17:40Z 58° 57' N, 12° 34' W Click for more
163708 CTD/STD cast 1978-08-27 18:05Z 58° 58' N, 12° 30' W Click for more
163721 CTD/STD cast 1978-08-27 18:30Z 58° 57' N, 12° 27' W Click for more
163733 CTD/STD cast 1978-08-27 18:55Z 58° 58' N, 12° 24' W Click for more
163745 CTD/STD cast 1978-08-27 20:30Z 58° 57' N, 12° 30' W Click for more
163757 CTD/STD cast 1978-08-27 21:00Z 58° 57' N, 12° 30' W Click for more
163769 CTD/STD cast 1978-08-27 21:30Z 58° 57' N, 12° 30' W Click for more
163770 CTD/STD cast 1978-08-27 22:00Z 58° 57' N, 12° 30' W Click for more
163782 CTD/STD cast 1978-08-27 22:30Z 58° 57' N, 12° 30' W Click for more
163794 CTD/STD cast 1978-08-27 23:00Z 58° 57' N, 12° 30' W Click for more
163801 CTD/STD cast 1978-08-27 23:30Z 58° 57' N, 12° 30' W Click for more
163813 CTD/STD cast 1978-08-28 00:35Z 58° 58' N, 12° 28' W Click for more
163825 CTD/STD cast 1978-08-28 00:40Z 58° 58' N, 12° 28' W Click for more
163837 CTD/STD cast 1978-08-28 00:45Z 58° 58' N, 12° 28' W Click for more
163849 CTD/STD cast 1978-08-28 00:50Z 58° 58' N, 12° 28' W Click for more
163850 CTD/STD cast 1978-08-28 00:55Z 58° 58' N, 12° 28' W Click for more
163862 CTD/STD cast 1978-08-28 01:00Z 58° 58' N, 12° 28' W Click for more
163874 CTD/STD cast 1978-08-28 01:05Z 58° 58' N, 12° 28' W Click for more
163886 CTD/STD cast 1978-08-28 01:10Z 58° 58' N, 12° 28' W Click for more
163898 CTD/STD cast 1978-08-28 01:15Z 58° 58' N, 12° 28' W Click for more
163905 CTD/STD cast 1978-08-28 01:20Z 58° 58' N, 12° 28' W Click for more
163917 CTD/STD cast 1978-08-28 01:25Z 58° 58' N, 12° 28' W Click for more
163929 CTD/STD cast 1978-08-28 01:30Z 58° 58' N, 12° 28' W Click for more
163930 CTD/STD cast 1978-08-28 01:35Z 58° 58' N, 12° 28' W Click for more
163942 CTD/STD cast 1978-08-28 01:40Z 58° 58' N, 12° 28' W Click for more
163954 CTD/STD cast 1978-08-28 01:45Z 58° 58' N, 12° 28' W Click for more
163966 CTD/STD cast 1978-08-28 01:50Z 58° 58' N, 12° 28' W Click for more
163978 CTD/STD cast 1978-08-28 01:55Z 58° 58' N, 12° 28' W Click for more
163991 CTD/STD cast 1978-08-28 02:00Z 58° 58' N, 12° 28' W Click for more
164005 CTD/STD cast 1978-08-28 02:05Z 58° 58' N, 12° 28' W Click for more
164017 CTD/STD cast 1978-08-28 02:10Z 58° 58' N, 12° 28' W Click for more
164029 CTD/STD cast 1978-08-28 02:15Z 58° 58' N, 12° 28' W Click for more
164030 CTD/STD cast 1978-08-28 02:20Z 58° 58' N, 12° 28' W Click for more
164042 CTD/STD cast 1978-08-28 02:25Z 58° 58' N, 12° 28' W Click for more
164054 CTD/STD cast 1978-08-28 02:30Z 58° 58' N, 12° 28' W Click for more
164066 CTD/STD cast 1978-08-28 03:00Z 58° 58' N, 12° 31' W Click for more
164078 CTD/STD cast 1978-08-28 03:30Z 58° 58' N, 12° 31' W Click for more
164091 CTD/STD cast 1978-08-28 04:00Z 58° 58' N, 12° 31' W Click for more
164109 CTD/STD cast 1978-08-28 04:30Z 58° 58' N, 12° 31' W Click for more
164110 CTD/STD cast 1978-08-28 05:06Z 58° 58' N, 12° 31' W Click for more
164122 CTD/STD cast 1978-08-28 05:30Z 58° 58' N, 12° 31' W Click for more
164134 CTD/STD cast 1978-08-28 06:00Z 58° 58' N, 12° 31' W Click for more
164146 CTD/STD cast 1978-08-28 06:30Z 58° 58' N, 12° 31' W Click for more
164158 CTD/STD cast 1978-08-28 07:00Z 58° 58' N, 12° 31' W Click for more
164171 CTD/STD cast 1978-08-28 07:33Z 58° 57' N, 12° 31' W Click for more
164183 CTD/STD cast 1978-08-28 13:30Z 58° 58' N, 12° 33' W Click for more
164195 CTD/STD cast 1978-08-28 13:40Z 58° 58' N, 12° 33' W Click for more
164202 CTD/STD cast 1978-08-28 13:50Z 58° 58' N, 12° 33' W Click for more
164214 CTD/STD cast 1978-08-28 14:00Z 58° 58' N, 12° 33' W Click for more
164226 CTD/STD cast 1978-08-28 14:10Z 58° 58' N, 12° 33' W Click for more
164238 CTD/STD cast 1978-08-28 14:20Z 58° 58' N, 12° 33' W Click for more
164251 CTD/STD cast 1978-08-28 14:30Z 58° 58' N, 12° 33' W Click for more
164263 CTD/STD cast 1978-08-28 14:40Z 58° 58' N, 12° 33' W Click for more
164275 CTD/STD cast 1978-08-28 14:53Z 58° 58' N, 12° 33' W Click for more
164287 CTD/STD cast 1978-08-28 15:00Z 58° 58' N, 12° 33' W Click for more
164299 CTD/STD cast 1978-08-28 15:10Z 58° 58' N, 12° 33' W Click for more
164306 CTD/STD cast 1978-08-28 15:20Z 58° 58' N, 12° 33' W Click for more
164318 CTD/STD cast 1978-08-28 15:30Z 58° 58' N, 12° 33' W Click for more
164331 CTD/STD cast 1978-08-28 15:40Z 58° 58' N, 12° 33' W Click for more
164343 CTD/STD cast 1978-08-28 15:50Z 58° 58' N, 12° 33' W Click for more
164355 CTD/STD cast 1978-08-28 21:00Z 58° 58' N, 12° 28' W Click for more
164367 CTD/STD cast 1978-08-28 21:05Z 58° 58' N, 12° 28' W Click for more
164379 CTD/STD cast 1978-08-28 21:10Z 58° 58' N, 12° 28' W Click for more
164380 CTD/STD cast 1978-08-28 21:15Z 58° 58' N, 12° 28' W Click for more
164392 CTD/STD cast 1978-08-28 21:20Z 58° 58' N, 12° 28' W Click for more
164411 CTD/STD cast 1978-08-28 21:25Z 58° 58' N, 12° 28' W Click for more
164423 CTD/STD cast 1978-08-28 21:30Z 58° 58' N, 12° 28' W Click for more
164435 CTD/STD cast 1978-08-28 21:35Z 58° 58' N, 12° 28' W Click for more
164447 CTD/STD cast 1978-08-28 21:40Z 58° 58' N, 12° 28' W Click for more
164459 CTD/STD cast 1978-08-28 21:45Z 58° 58' N, 12° 28' W Click for more
164460 CTD/STD cast 1978-08-28 21:50Z 58° 58' N, 12° 28' W Click for more
164472 CTD/STD cast 1978-08-28 21:55Z 58° 58' N, 12° 28' W Click for more
164484 CTD/STD cast 1978-08-28 22:00Z 58° 58' N, 12° 28' W Click for more
164496 CTD/STD cast 1978-08-28 22:05Z 58° 58' N, 12° 28' W Click for more
164503 CTD/STD cast 1978-08-28 22:10Z 58° 58' N, 12° 28' W Click for more
164515 CTD/STD cast 1978-08-28 22:15Z 58° 58' N, 12° 28' W Click for more
164527 CTD/STD cast 1978-08-28 22:20Z 58° 58' N, 12° 28' W Click for more
164539 CTD/STD cast 1978-08-28 22:25Z 58° 58' N, 12° 28' W Click for more
164540 CTD/STD cast 1978-08-28 22:30Z 58° 58' N, 12° 28' W Click for more
164552 CTD/STD cast 1978-08-28 22:35Z 58° 58' N, 12° 28' W Click for more
164564 CTD/STD cast 1978-08-28 22:40Z 58° 58' N, 12° 28' W Click for more
164576 CTD/STD cast 1978-08-28 22:45Z 58° 58' N, 12° 28' W Click for more
164588 CTD/STD cast 1978-08-28 22:50Z 58° 58' N, 12° 28' W Click for more
164607 CTD/STD cast 1978-08-28 22:55Z 58° 58' N, 12° 28' W Click for more
164619 CTD/STD cast 1978-08-28 23:00Z 58° 58' N, 12° 28' W Click for more
164620 CTD/STD cast 1978-08-28 23:05Z 58° 58' N, 12° 28' W Click for more
164632 CTD/STD cast 1978-08-28 23:10Z 58° 58' N, 12° 28' W Click for more
164644 CTD/STD cast 1978-08-28 23:15Z 58° 58' N, 12° 28' W Click for more
164656 CTD/STD cast 1978-08-28 23:20Z 58° 58' N, 12° 28' W Click for more
164668 CTD/STD cast 1978-08-28 23:25Z 58° 58' N, 12° 28' W Click for more
164681 CTD/STD cast 1978-08-28 23:30Z 58° 58' N, 12° 28' W Click for more
164693 CTD/STD cast 1978-08-29 00:11Z 58° 57' N, 12° 27' W Click for more
164700 CTD/STD cast 1978-08-29 00:16Z 58° 57' N, 12° 27' W Click for more
164712 CTD/STD cast 1978-08-29 00:20Z 58° 57' N, 12° 27' W Click for more
164724 CTD/STD cast 1978-08-29 00:25Z 58° 57' N, 12° 27' W Click for more
164736 CTD/STD cast 1978-08-29 00:30Z 58° 57' N, 12° 27' W Click for more
164748 CTD/STD cast 1978-08-29 00:35Z 58° 57' N, 12° 27' W Click for more
164761 CTD/STD cast 1978-08-29 00:40Z 58° 57' N, 12° 27' W Click for more
164773 CTD/STD cast 1978-08-29 00:45Z 58° 57' N, 12° 27' W Click for more
164785 CTD/STD cast 1978-08-29 00:50Z 58° 57' N, 12° 27' W Click for more
164797 CTD/STD cast 1978-08-29 00:55Z 58° 57' N, 12° 27' W Click for more
164804 CTD/STD cast 1978-08-29 01:00Z 58° 57' N, 12° 27' W Click for more
164816 CTD/STD cast 1978-08-29 01:05Z 58° 57' N, 12° 27' W Click for more
164828 CTD/STD cast 1978-08-29 01:11Z 58° 57' N, 12° 27' W Click for more
164841 CTD/STD cast 1978-08-29 01:16Z 58° 57' N, 12° 27' W Click for more
164853 CTD/STD cast 1978-08-29 01:20Z 58° 57' N, 12° 27' W Click for more
164865 CTD/STD cast 1978-08-29 01:25Z 58° 57' N, 12° 27' W Click for more
164877 CTD/STD cast 1978-08-29 01:30Z 58° 57' N, 12° 27' W Click for more
164889 CTD/STD cast 1978-08-29 01:41Z 58° 57' N, 12° 27' W Click for more
164890 CTD/STD cast 1978-08-29 01:45Z 58° 57' N, 12° 27' W Click for more
164908 CTD/STD cast 1978-08-29 01:50Z 58° 57' N, 12° 27' W Click for more
164921 CTD/STD cast 1978-08-29 01:55Z 58° 57' N, 12° 27' W Click for more
164933 CTD/STD cast 1978-08-29 02:00Z 58° 57' N, 12° 27' W Click for more
164945 CTD/STD cast 1978-08-29 02:05Z 58° 57' N, 12° 27' W Click for more
164957 CTD/STD cast 1978-08-29 02:10Z 58° 57' N, 12° 27' W Click for more
164969 CTD/STD cast 1978-08-29 02:15Z 58° 57' N, 12° 27' W Click for more
164970 CTD/STD cast 1978-08-29 02:20Z 58° 57' N, 12° 27' W Click for more
164982 CTD/STD cast 1978-08-29 02:25Z 58° 57' N, 12° 27' W Click for more
164994 CTD/STD cast 1978-08-29 02:30Z 58° 57' N, 12° 27' W Click for more
165008 CTD/STD cast 1978-08-29 02:41Z 58° 57' N, 12° 27' W Click for more
165021 CTD/STD cast 1978-08-29 02:45Z 58° 57' N, 12° 27' W Click for more
165033 CTD/STD cast 1978-08-29 02:50Z 58° 57' N, 12° 27' W Click for more
165045 CTD/STD cast 1978-08-29 02:55Z 58° 57' N, 12° 27' W Click for more
165057 CTD/STD cast 1978-08-29 03:00Z 58° 57' N, 12° 27' W Click for more
165069 CTD/STD cast 1978-08-29 03:05Z 58° 57' N, 12° 27' W Click for more
165070 CTD/STD cast 1978-08-29 03:10Z 58° 57' N, 12° 27' W Click for more
165082 CTD/STD cast 1978-08-29 03:15Z 58° 57' N, 12° 27' W Click for more
165094 CTD/STD cast 1978-08-29 03:20Z 58° 57' N, 12° 27' W Click for more
165101 CTD/STD cast 1978-08-29 03:25Z 58° 57' N, 12° 27' W Click for more
165113 CTD/STD cast 1978-08-29 03:30Z 58° 57' N, 12° 27' W Click for more
165125 CTD/STD cast 1978-08-29 03:35Z 58° 57' N, 12° 27' W Click for more
165137 CTD/STD cast 1978-08-29 03:40Z 58° 57' N, 12° 27' W Click for more
165149 CTD/STD cast 1978-08-29 03:45Z 58° 57' N, 12° 27' W Click for more
165150 CTD/STD cast 1978-08-29 03:50Z 58° 57' N, 12° 27' W Click for more
165162 CTD/STD cast 1978-08-29 03:55Z 58° 57' N, 12° 27' W Click for more
165174 CTD/STD cast 1978-08-29 04:00Z 58° 57' N, 12° 27' W Click for more
165186 CTD/STD cast 1978-08-29 04:05Z 58° 57' N, 12° 27' W Click for more
165198 CTD/STD cast 1978-08-29 04:10Z 58° 57' N, 12° 27' W Click for more
165205 CTD/STD cast 1978-08-29 04:15Z 58° 57' N, 12° 27' W Click for more
165217 CTD/STD cast 1978-08-29 04:20Z 58° 57' N, 12° 27' W Click for more
165229 CTD/STD cast 1978-08-29 04:25Z 58° 57' N, 12° 27' W Click for more
165230 CTD/STD cast 1978-08-29 04:30Z 58° 57' N, 12° 27' W Click for more
165242 CTD/STD cast 1978-08-29 04:35Z 58° 57' N, 12° 27' W Click for more
165254 CTD/STD cast 1978-08-29 04:40Z 58° 57' N, 12° 27' W Click for more
165266 CTD/STD cast 1978-08-29 04:45Z 58° 57' N, 12° 27' W Click for more
165278 CTD/STD cast 1978-08-29 04:50Z 58° 57' N, 12° 27' W Click for more
165291 CTD/STD cast 1978-08-29 04:55Z 58° 57' N, 12° 27' W Click for more
165309 CTD/STD cast 1978-08-29 05:00Z 58° 57' N, 12° 27' W Click for more
165310 CTD/STD cast 1978-08-29 05:05Z 58° 57' N, 12° 27' W Click for more
165322 CTD/STD cast 1978-08-29 05:10Z 58° 57' N, 12° 27' W Click for more
165334 CTD/STD cast 1978-08-29 05:15Z 58° 57' N, 12° 27' W Click for more
165346 CTD/STD cast 1978-08-29 05:20Z 58° 57' N, 12° 27' W Click for more
165358 CTD/STD cast 1978-08-29 05:25Z 58° 57' N, 12° 27' W Click for more
165371 CTD/STD cast 1978-08-29 05:30Z 58° 57' N, 12° 27' W Click for more
165383 CTD/STD cast 1978-08-29 05:35Z 58° 57' N, 12° 27' W Click for more
165395 CTD/STD cast 1978-08-29 05:40Z 58° 57' N, 12° 27' W Click for more
165402 CTD/STD cast 1978-08-29 05:45Z 58° 57' N, 12° 27' W Click for more
165414 CTD/STD cast 1978-08-29 05:50Z 58° 57' N, 12° 27' W Click for more
165426 CTD/STD cast 1978-08-29 05:55Z 58° 57' N, 12° 27' W Click for more
165438 CTD/STD cast 1978-08-29 06:00Z 58° 57' N, 12° 27' W Click for more
165451 CTD/STD cast 1978-08-29 06:05Z 58° 57' N, 12° 27' W Click for more
165463 CTD/STD cast 1978-08-29 06:10Z 58° 57' N, 12° 27' W Click for more
165475 CTD/STD cast 1978-08-29 09:00Z 58° 55' N, 12° 25' W Click for more
165487 CTD/STD cast 1978-08-29 09:05Z 58° 55' N, 12° 25' W Click for more
165499 CTD/STD cast 1978-08-29 09:10Z 58° 55' N, 12° 25' W Click for more
165506 CTD/STD cast 1978-08-29 09:15Z 58° 55' N, 12° 25' W Click for more
165518 CTD/STD cast 1978-08-29 09:20Z 58° 55' N, 12° 25' W Click for more
165531 CTD/STD cast 1978-08-29 09:25Z 58° 55' N, 12° 25' W Click for more
165543 CTD/STD cast 1978-08-29 09:30Z 58° 55' N, 12° 25' W Click for more
165555 CTD/STD cast 1978-08-29 09:35Z 58° 55' N, 12° 25' W Click for more
165567 CTD/STD cast 1978-08-29 09:40Z 58° 55' N, 12° 25' W Click for more
165579 CTD/STD cast 1978-08-29 09:45Z 58° 55' N, 12° 25' W Click for more
165580 CTD/STD cast 1978-08-29 10:05Z 58° 55' N, 12° 24' W Click for more
165592 CTD/STD cast 1978-08-29 10:10Z 58° 55' N, 12° 24' W Click for more
165611 CTD/STD cast 1978-08-29 10:15Z 58° 55' N, 12° 24' W Click for more
165623 CTD/STD cast 1978-08-29 10:20Z 58° 55' N, 12° 24' W Click for more
165635 CTD/STD cast 1978-08-29 10:25Z 58° 55' N, 12° 24' W Click for more
165647 CTD/STD cast 1978-08-29 10:30Z 58° 55' N, 12° 24' W Click for more
165659 CTD/STD cast 1978-08-29 10:35Z 58° 55' N, 12° 24' W Click for more
165660 CTD/STD cast 1978-08-29 10:40Z 58° 55' N, 12° 24' W Click for more
165672 CTD/STD cast 1978-08-29 10:45Z 58° 55' N, 12° 24' W Click for more
165684 CTD/STD cast 1978-08-29 10:50Z 58° 55' N, 12° 24' W Click for more
165696 CTD/STD cast 1978-08-29 10:55Z 58° 55' N, 12° 24' W Click for more
165703 CTD/STD cast 1978-08-29 11:00Z 58° 55' N, 12° 24' W Click for more
165715 CTD/STD cast 1978-08-29 11:05Z 58° 55' N, 12° 24' W Click for more
165727 CTD/STD cast 1978-08-29 11:10Z 58° 55' N, 12° 24' W Click for more
165739 CTD/STD cast 1978-08-29 11:15Z 58° 55' N, 12° 24' W Click for more
165740 CTD/STD cast 1978-08-29 11:20Z 58° 55' N, 12° 24' W Click for more
165752 CTD/STD cast 1978-08-29 11:25Z 58° 55' N, 12° 24' W Click for more
165764 CTD/STD cast 1978-08-29 11:30Z 58° 55' N, 12° 24' W Click for more
165776 CTD/STD cast 1978-08-29 11:35Z 58° 55' N, 12° 24' W Click for more
165788 CTD/STD cast 1978-08-29 11:40Z 58° 55' N, 12° 24' W Click for more
165807 CTD/STD cast 1978-08-29 11:45Z 58° 55' N, 12° 24' W Click for more
165819 CTD/STD cast 1978-08-29 11:50Z 58° 55' N, 12° 24' W Click for more
165820 CTD/STD cast 1978-08-29 11:55Z 58° 55' N, 12° 24' W Click for more
165832 CTD/STD cast 1978-08-29 12:00Z 58° 55' N, 12° 24' W Click for more
165844 CTD/STD cast 1978-08-29 12:05Z 58° 55' N, 12° 24' W Click for more
165856 CTD/STD cast 1978-08-29 12:10Z 58° 55' N, 12° 24' W Click for more
165868 CTD/STD cast 1978-08-29 12:15Z 58° 55' N, 12° 24' W Click for more
165881 CTD/STD cast 1978-08-29 12:20Z 58° 55' N, 12° 24' W Click for more
165893 CTD/STD cast 1978-08-29 12:25Z 58° 55' N, 12° 24' W Click for more
165900 CTD/STD cast 1978-08-29 12:30Z 58° 55' N, 12° 24' W Click for more
165912 CTD/STD cast 1978-08-29 12:35Z 58° 55' N, 12° 24' W Click for more
165924 CTD/STD cast 1978-08-29 12:40Z 58° 55' N, 12° 24' W Click for more
165936 CTD/STD cast 1978-08-29 12:45Z 58° 55' N, 12° 24' W Click for more
165948 CTD/STD cast 1978-08-29 12:50Z 58° 55' N, 12° 24' W Click for more
165961 CTD/STD cast 1978-08-29 12:55Z 58° 55' N, 12° 24' W Click for more
165973 CTD/STD cast 1978-08-29 13:00Z 58° 55' N, 12° 24' W Click for more
165985 CTD/STD cast 1978-08-29 13:05Z 58° 55' N, 12° 24' W Click for more
165997 CTD/STD cast 1978-08-29 13:10Z 58° 55' N, 12° 24' W Click for more
166000 CTD/STD cast 1978-08-29 13:15Z 58° 55' N, 12° 24' W Click for more
166012 CTD/STD cast 1978-08-29 13:20Z 58° 55' N, 12° 24' W Click for more
166024 CTD/STD cast 1978-08-29 13:25Z 58° 55' N, 12° 24' W Click for more
166036 CTD/STD cast 1978-08-29 13:30Z 58° 55' N, 12° 24' W Click for more
166048 CTD/STD cast 1978-08-29 13:35Z 58° 55' N, 12° 24' W Click for more
166061 CTD/STD cast 1978-08-29 13:40Z 58° 55' N, 12° 24' W Click for more
166073 CTD/STD cast 1978-08-29 13:45Z 58° 55' N, 12° 24' W Click for more
166085 CTD/STD cast 1978-08-29 13:50Z 58° 55' N, 12° 24' W Click for more
166097 CTD/STD cast 1978-08-29 13:55Z 58° 55' N, 12° 24' W Click for more
166104 CTD/STD cast 1978-08-29 14:00Z 58° 55' N, 12° 24' W Click for more
166116 CTD/STD cast 1978-08-29 14:05Z 58° 55' N, 12° 24' W Click for more
166128 CTD/STD cast 1978-08-29 14:10Z 58° 55' N, 12° 24' W Click for more
166141 CTD/STD cast 1978-08-29 14:15Z 58° 55' N, 12° 24' W Click for more
166153 CTD/STD cast 1978-08-29 14:20Z 58° 55' N, 12° 24' W Click for more
166165 CTD/STD cast 1978-08-29 14:25Z 58° 55' N, 12° 24' W Click for more
166177 CTD/STD cast 1978-08-29 14:30Z 58° 55' N, 12° 24' W Click for more
166189 CTD/STD cast 1978-08-29 14:35Z 58° 55' N, 12° 24' W Click for more
166190 CTD/STD cast 1978-08-29 14:40Z 58° 55' N, 12° 24' W Click for more
166208 CTD/STD cast 1978-08-29 14:45Z 58° 55' N, 12° 24' W Click for more
166221 CTD/STD cast 1978-08-29 14:50Z 58° 55' N, 12° 24' W Click for more
166233 CTD/STD cast 1978-08-29 14:55Z 58° 55' N, 12° 24' W Click for more
166245 CTD/STD cast 1978-08-29 15:00Z 58° 55' N, 12° 24' W Click for more
166257 CTD/STD cast 1978-08-29 15:05Z 58° 55' N, 12° 24' W Click for more
166269 CTD/STD cast 1978-08-29 15:10Z 58° 55' N, 12° 24' W Click for more
166270 CTD/STD cast 1978-08-29 15:15Z 58° 55' N, 12° 24' W Click for more
166282 CTD/STD cast 1978-08-29 15:20Z 58° 55' N, 12° 24' W Click for more
166294 CTD/STD cast 1978-08-29 15:25Z 58° 55' N, 12° 24' W Click for more
166301 CTD/STD cast 1978-08-29 15:30Z 58° 55' N, 12° 24' W Click for more
166313 CTD/STD cast 1978-08-29 15:35Z 58° 55' N, 12° 24' W Click for more
166325 CTD/STD cast 1978-08-29 15:40Z 58° 55' N, 12° 24' W Click for more
166337 CTD/STD cast 1978-08-29 15:45Z 58° 55' N, 12° 24' W Click for more
166349 CTD/STD cast 1978-08-29 15:50Z 58° 55' N, 12° 24' W Click for more
166350 CTD/STD cast 1978-08-29 15:55Z 58° 55' N, 12° 24' W Click for more
166362 CTD/STD cast 1978-08-29 16:10Z 58° 54' N, 12° 25' W Click for more
166374 CTD/STD cast 1978-08-29 16:15Z 58° 54' N, 12° 25' W Click for more
166386 CTD/STD cast 1978-08-29 16:20Z 58° 54' N, 12° 25' W Click for more
166398 CTD/STD cast 1978-08-29 16:25Z 58° 54' N, 12° 25' W Click for more
166405 CTD/STD cast 1978-08-29 16:30Z 58° 54' N, 12° 25' W Click for more
166417 CTD/STD cast 1978-08-29 16:35Z 58° 54' N, 12° 25' W Click for more
166429 CTD/STD cast 1978-08-29 16:40Z 58° 54' N, 12° 25' W Click for more
166430 CTD/STD cast 1978-08-29 16:45Z 58° 54' N, 12° 25' W Click for more
166442 CTD/STD cast 1978-08-29 16:50Z 58° 54' N, 12° 25' W Click for more
166454 CTD/STD cast 1978-08-29 16:55Z 58° 54' N, 12° 25' W Click for more
166466 CTD/STD cast 1978-08-29 17:00Z 58° 54' N, 12° 25' W Click for more
166478 CTD/STD cast 1978-08-29 17:05Z 58° 54' N, 12° 25' W Click for more
166491 CTD/STD cast 1978-08-29 17:10Z 58° 54' N, 12° 25' W Click for more
166509 CTD/STD cast 1978-08-29 17:15Z 58° 54' N, 12° 25' W Click for more
166510 CTD/STD cast 1978-08-29 17:20Z 58° 54' N, 12° 25' W Click for more
166522 CTD/STD cast 1978-08-29 17:25Z 58° 54' N, 12° 25' W Click for more
166534 CTD/STD cast 1978-08-29 17:30Z 58° 54' N, 12° 25' W Click for more
166546 CTD/STD cast 1978-08-29 17:35Z 58° 54' N, 12° 25' W Click for more
166558 CTD/STD cast 1978-08-29 17:40Z 58° 54' N, 12° 25' W Click for more
166571 CTD/STD cast 1978-08-29 17:45Z 58° 54' N, 12° 25' W Click for more
166583 CTD/STD cast 1978-08-29 17:50Z 58° 54' N, 12° 25' W Click for more
166595 CTD/STD cast 1978-08-29 17:56Z 58° 54' N, 12° 25' W Click for more
166602 CTD/STD cast 1978-08-29 18:00Z 58° 54' N, 12° 25' W Click for more
166614 CTD/STD cast 1978-08-29 18:05Z 58° 54' N, 12° 25' W Click for more
166626 CTD/STD cast 1978-08-29 18:10Z 58° 54' N, 12° 25' W Click for more
166638 CTD/STD cast 1978-08-29 18:15Z 58° 54' N, 12° 25' W Click for more
166651 CTD/STD cast 1978-08-29 18:20Z 58° 54' N, 12° 25' W Click for more
166663 CTD/STD cast 1978-08-29 18:25Z 58° 54' N, 12° 25' W Click for more
166675 CTD/STD cast 1978-08-29 18:30Z 58° 54' N, 12° 25' W Click for more
166687 CTD/STD cast 1978-08-29 18:35Z 58° 54' N, 12° 25' W Click for more
166699 CTD/STD cast 1978-08-29 18:40Z 58° 54' N, 12° 25' W Click for more
166706 CTD/STD cast 1978-08-29 18:45Z 58° 54' N, 12° 25' W Click for more
166718 CTD/STD cast 1978-08-29 18:50Z 58° 54' N, 12° 25' W Click for more
166731 CTD/STD cast 1978-08-29 18:55Z 58° 54' N, 12° 25' W Click for more
166743 CTD/STD cast 1978-08-29 19:00Z 58° 54' N, 12° 25' W Click for more
166755 CTD/STD cast 1978-08-29 19:05Z 58° 54' N, 12° 25' W Click for more
166767 CTD/STD cast 1978-08-29 19:10Z 58° 54' N, 12° 25' W Click for more
166779 CTD/STD cast 1978-08-29 19:15Z 58° 54' N, 12° 25' W Click for more
166780 CTD/STD cast 1978-08-29 19:20Z 58° 54' N, 12° 25' W Click for more
166792 CTD/STD cast 1978-08-29 19:25Z 58° 54' N, 12° 25' W Click for more
166811 CTD/STD cast 1978-08-29 19:30Z 58° 54' N, 12° 25' W Click for more
166823 CTD/STD cast 1978-08-29 19:35Z 58° 54' N, 12° 25' W Click for more
166835 CTD/STD cast 1978-08-29 19:40Z 58° 54' N, 12° 25' W Click for more
166847 CTD/STD cast 1978-08-29 19:45Z 58° 54' N, 12° 25' W Click for more
166859 CTD/STD cast 1978-08-29 19:50Z 58° 54' N, 12° 25' W Click for more
166860 CTD/STD cast 1978-08-29 19:55Z 58° 54' N, 12° 25' W Click for more
166872 CTD/STD cast 1978-08-29 20:00Z 58° 54' N, 12° 25' W Click for more
166884 CTD/STD cast 1978-08-29 20:05Z 58° 54' N, 12° 25' W Click for more
166896 CTD/STD cast 1978-08-29 20:10Z 58° 54' N, 12° 25' W Click for more
166903 CTD/STD cast 1978-08-29 20:15Z 58° 54' N, 12° 25' W Click for more
166915 CTD/STD cast 1978-08-29 20:20Z 58° 54' N, 12° 25' W Click for more
166927 CTD/STD cast 1978-08-29 20:25Z 58° 54' N, 12° 25' W Click for more
166939 CTD/STD cast 1978-08-29 20:30Z 58° 54' N, 12° 25' W Click for more
166940 CTD/STD cast 1978-08-29 20:35Z 58° 54' N, 12° 25' W Click for more
166952 CTD/STD cast 1978-08-29 20:40Z 58° 54' N, 12° 25' W Click for more
166964 CTD/STD cast 1978-08-29 20:45Z 58° 54' N, 12° 25' W Click for more
166976 CTD/STD cast 1978-08-29 20:50Z 58° 54' N, 12° 25' W Click for more
166988 CTD/STD cast 1978-08-29 20:55Z 58° 54' N, 12° 25' W Click for more
167003 CTD/STD cast 1978-08-29 21:00Z 58° 54' N, 12° 25' W Click for more
167015 CTD/STD cast 1978-08-29 21:05Z 58° 54' N, 12° 25' W Click for more
167027 CTD/STD cast 1978-08-29 21:10Z 58° 54' N, 12° 25' W Click for more
167039 CTD/STD cast 1978-08-29 21:15Z 58° 54' N, 12° 25' W Click for more
167040 CTD/STD cast 1978-08-29 21:20Z 58° 54' N, 12° 25' W Click for more
167052 CTD/STD cast 1978-08-29 21:25Z 58° 54' N, 12° 25' W Click for more
167064 CTD/STD cast 1978-08-29 21:30Z 58° 54' N, 12° 25' W Click for more
167076 CTD/STD cast 1978-08-29 21:35Z 58° 54' N, 12° 25' W Click for more
167088 CTD/STD cast 1978-08-29 21:40Z 58° 54' N, 12° 25' W Click for more
167107 CTD/STD cast 1978-08-29 21:45Z 58° 54' N, 12° 25' W Click for more
167119 CTD/STD cast 1978-08-29 21:50Z 58° 54' N, 12° 25' W Click for more
167120 CTD/STD cast 1978-08-29 21:55Z 58° 54' N, 12° 25' W Click for more
167132 CTD/STD cast 1978-08-29 22:05Z 58° 54' N, 12° 24' W Click for more
167144 CTD/STD cast 1978-08-29 22:10Z 58° 54' N, 12° 24' W Click for more
167156 CTD/STD cast 1978-08-29 22:15Z 58° 54' N, 12° 24' W Click for more
167168 CTD/STD cast 1978-08-29 22:20Z 58° 54' N, 12° 24' W Click for more
167181 CTD/STD cast 1978-08-29 22:25Z 58° 54' N, 12° 24' W Click for more
167193 CTD/STD cast 1978-08-29 22:30Z 58° 54' N, 12° 24' W Click for more
167200 CTD/STD cast 1978-08-29 22:35Z 58° 54' N, 12° 24' W Click for more
167212 CTD/STD cast 1978-08-29 22:40Z 58° 54' N, 12° 24' W Click for more
167224 CTD/STD cast 1978-08-29 22:45Z 58° 54' N, 12° 24' W Click for more
167236 CTD/STD cast 1978-08-29 22:50Z 58° 54' N, 12° 24' W Click for more
167248 CTD/STD cast 1978-08-29 22:55Z 58° 54' N, 12° 24' W Click for more
167261 CTD/STD cast 1978-08-29 23:00Z 58° 54' N, 12° 24' W Click for more
167273 CTD/STD cast 1978-08-29 23:05Z 58° 54' N, 12° 24' W Click for more
167285 CTD/STD cast 1978-08-29 23:10Z 58° 54' N, 12° 24' W Click for more
167297 CTD/STD cast 1978-08-29 23:15Z 58° 54' N, 12° 24' W Click for more
167304 CTD/STD cast 1978-08-29 23:20Z 58° 54' N, 12° 24' W Click for more
167316 CTD/STD cast 1978-08-29 23:25Z 58° 54' N, 12° 24' W Click for more
167328 CTD/STD cast 1978-08-29 23:30Z 58° 54' N, 12° 24' W Click for more
167341 CTD/STD cast 1978-08-29 23:35Z 58° 54' N, 12° 24' W Click for more
167353 CTD/STD cast 1978-08-29 23:40Z 58° 54' N, 12° 24' W Click for more
167365 CTD/STD cast 1978-08-29 23:45Z 58° 54' N, 12° 24' W Click for more
167377 CTD/STD cast 1978-08-29 23:50Z 58° 54' N, 12° 24' W Click for more
167389 CTD/STD cast 1978-08-29 23:55Z 58° 54' N, 12° 24' W Click for more
167390 CTD/STD cast 1978-08-30 00:00Z 58° 54' N, 12° 24' W Click for more
167408 CTD/STD cast 1978-08-30 00:05Z 58° 54' N, 12° 24' W Click for more
167421 CTD/STD cast 1978-08-30 00:10Z 58° 54' N, 12° 24' W Click for more
167433 CTD/STD cast 1978-08-30 00:15Z 58° 54' N, 12° 24' W Click for more
167445 CTD/STD cast 1978-08-30 00:20Z 58° 54' N, 12° 24' W Click for more
167457 CTD/STD cast 1978-08-30 00:25Z 58° 54' N, 12° 24' W Click for more
167469 CTD/STD cast 1978-08-30 00:30Z 58° 54' N, 12° 24' W Click for more
167470 CTD/STD cast 1978-08-30 00:35Z 58° 54' N, 12° 24' W Click for more
167482 CTD/STD cast 1978-08-30 00:40Z 58° 54' N, 12° 24' W Click for more
167494 CTD/STD cast 1978-08-30 00:45Z 58° 54' N, 12° 24' W Click for more
167501 CTD/STD cast 1978-08-30 00:50Z 58° 54' N, 12° 24' W Click for more
167513 CTD/STD cast 1978-08-30 00:55Z 58° 54' N, 12° 24' W Click for more
167525 CTD/STD cast 1978-08-30 01:00Z 58° 54' N, 12° 24' W Click for more
167537 CTD/STD cast 1978-08-30 01:05Z 58° 54' N, 12° 24' W Click for more
167549 CTD/STD cast 1978-08-30 01:10Z 58° 54' N, 12° 24' W Click for more
167550 CTD/STD cast 1978-08-30 01:15Z 58° 54' N, 12° 24' W Click for more
167562 CTD/STD cast 1978-08-30 01:20Z 58° 54' N, 12° 24' W Click for more
167574 CTD/STD cast 1978-08-30 01:25Z 58° 54' N, 12° 24' W Click for more
167586 CTD/STD cast 1978-08-30 01:30Z 58° 54' N, 12° 24' W Click for more
167598 CTD/STD cast 1978-08-30 01:35Z 58° 54' N, 12° 24' W Click for more
167605 CTD/STD cast 1978-08-30 01:40Z 58° 54' N, 12° 24' W Click for more
167617 CTD/STD cast 1978-08-30 01:45Z 58° 54' N, 12° 24' W Click for more
167629 CTD/STD cast 1978-08-30 01:50Z 58° 54' N, 12° 24' W Click for more
167630 CTD/STD cast 1978-08-30 01:55Z 58° 54' N, 12° 24' W Click for more
167642 CTD/STD cast 1978-08-30 02:00Z 58° 54' N, 12° 24' W Click for more
167654 CTD/STD cast 1978-08-30 02:05Z 58° 54' N, 12° 24' W Click for more
167666 CTD/STD cast 1978-08-30 02:10Z 58° 54' N, 12° 24' W Click for more
167678 CTD/STD cast 1978-08-30 02:15Z 58° 54' N, 12° 24' W Click for more
167691 CTD/STD cast 1978-08-30 02:20Z 58° 54' N, 12° 24' W Click for more
167709 CTD/STD cast 1978-08-30 02:25Z 58° 54' N, 12° 24' W Click for more
167710 CTD/STD cast 1978-08-30 02:30Z 58° 54' N, 12° 24' W Click for more
167722 CTD/STD cast 1978-08-30 02:35Z 58° 54' N, 12° 24' W Click for more
167734 CTD/STD cast 1978-08-30 02:40Z 58° 54' N, 12° 24' W Click for more
167746 CTD/STD cast 1978-08-30 02:45Z 58° 54' N, 12° 24' W Click for more
167758 CTD/STD cast 1978-08-30 02:50Z 58° 54' N, 12° 24' W Click for more
167771 CTD/STD cast 1978-08-30 02:55Z 58° 54' N, 12° 24' W Click for more
167783 CTD/STD cast 1978-08-30 03:00Z 58° 54' N, 12° 24' W Click for more
167795 CTD/STD cast 1978-08-30 03:05Z 58° 54' N, 12° 24' W Click for more
167802 CTD/STD cast 1978-08-30 03:10Z 58° 54' N, 12° 24' W Click for more
167814 CTD/STD cast 1978-08-30 03:20Z 58° 54' N, 12° 24' W Click for more
167826 CTD/STD cast 1978-08-30 03:25Z 58° 54' N, 12° 24' W Click for more
167838 CTD/STD cast 1978-08-30 03:30Z 58° 54' N, 12° 24' W Click for more
167851 CTD/STD cast 1978-08-30 03:35Z 58° 54' N, 12° 24' W Click for more
167863 CTD/STD cast 1978-08-30 03:40Z 58° 54' N, 12° 24' W Click for more
167875 CTD/STD cast 1978-08-30 03:45Z 58° 54' N, 12° 24' W Click for more
167887 CTD/STD cast 1978-08-30 03:50Z 58° 54' N, 12° 24' W Click for more
167899 CTD/STD cast 1978-08-30 03:55Z 58° 54' N, 12° 24' W Click for more
167906 CTD/STD cast 1978-08-30 04:10Z 58° 54' N, 12° 24' W Click for more
167918 CTD/STD cast 1978-08-30 04:15Z 58° 54' N, 12° 24' W Click for more
167931 CTD/STD cast 1978-08-30 04:20Z 58° 54' N, 12° 24' W Click for more
167943 CTD/STD cast 1978-08-30 04:25Z 58° 54' N, 12° 24' W Click for more
167955 CTD/STD cast 1978-08-30 04:30Z 58° 54' N, 12° 24' W Click for more
167967 CTD/STD cast 1978-08-30 04:35Z 58° 54' N, 12° 24' W Click for more
167979 CTD/STD cast 1978-08-30 04:40Z 58° 54' N, 12° 24' W Click for more
167980 CTD/STD cast 1978-08-30 04:45Z 58° 54' N, 12° 24' W Click for more
167992 CTD/STD cast 1978-08-30 04:51Z 58° 54' N, 12° 24' W Click for more
168006 CTD/STD cast 1978-08-30 04:55Z 58° 54' N, 12° 24' W Click for more
168018 CTD/STD cast 1978-08-30 05:00Z 58° 54' N, 12° 24' W Click for more
168031 CTD/STD cast 1978-08-30 05:05Z 58° 54' N, 12° 24' W Click for more
168043 CTD/STD cast 1978-08-30 05:10Z 58° 54' N, 12° 24' W Click for more
168055 CTD/STD cast 1978-08-30 05:15Z 58° 54' N, 12° 24' W Click for more
168067 CTD/STD cast 1978-08-30 05:20Z 58° 54' N, 12° 24' W Click for more
168079 CTD/STD cast 1978-08-30 05:25Z 58° 54' N, 12° 24' W Click for more
168080 CTD/STD cast 1978-08-30 05:30Z 58° 54' N, 12° 24' W Click for more
168092 CTD/STD cast 1978-08-30 05:35Z 58° 54' N, 12° 24' W Click for more
168111 CTD/STD cast 1978-08-30 05:40Z 58° 54' N, 12° 24' W Click for more
168123 CTD/STD cast 1978-08-30 05:45Z 58° 54' N, 12° 24' W Click for more
168135 CTD/STD cast 1978-08-30 05:50Z 58° 54' N, 12° 24' W Click for more
168147 CTD/STD cast 1978-08-30 05:55Z 58° 54' N, 12° 24' W Click for more
168159 CTD/STD cast 1978-08-30 06:00Z 58° 54' N, 12° 24' W Click for more
168160 CTD/STD cast 1978-08-30 06:05Z 58° 54' N, 12° 24' W Click for more
168172 CTD/STD cast 1978-08-30 06:10Z 58° 54' N, 12° 24' W Click for more
168184 CTD/STD cast 1978-08-30 06:15Z 58° 54' N, 12° 24' W Click for more
168196 CTD/STD cast 1978-08-30 06:20Z 58° 54' N, 12° 24' W Click for more
168203 CTD/STD cast 1978-08-30 06:25Z 58° 54' N, 12° 24' W Click for more
168215 CTD/STD cast 1978-08-30 06:30Z 58° 54' N, 12° 24' W Click for more
168227 CTD/STD cast 1978-08-30 06:36Z 58° 54' N, 12° 24' W Click for more
168239 CTD/STD cast 1978-08-30 06:40Z 58° 54' N, 12° 24' W Click for more
168240 CTD/STD cast 1978-08-30 06:45Z 58° 54' N, 12° 24' W Click for more
168252 CTD/STD cast 1978-08-30 06:50Z 58° 54' N, 12° 24' W Click for more
168264 CTD/STD cast 1978-08-30 06:55Z 58° 54' N, 12° 24' W Click for more
168276 CTD/STD cast 1978-08-30 07:00Z 58° 54' N, 12° 24' W Click for more
168288 CTD/STD cast 1978-08-30 07:05Z 58° 54' N, 12° 24' W Click for more
168307 CTD/STD cast 1978-08-30 07:10Z 58° 54' N, 12° 24' W Click for more
168319 CTD/STD cast 1978-08-30 07:15Z 58° 54' N, 12° 24' W Click for more
168320 CTD/STD cast 1978-08-30 07:20Z 58° 54' N, 12° 24' W Click for more
168332 CTD/STD cast 1978-08-30 07:25Z 58° 54' N, 12° 24' W Click for more
168344 CTD/STD cast 1978-08-30 07:30Z 58° 54' N, 12° 24' W Click for more
168356 CTD/STD cast 1978-08-30 07:35Z 58° 54' N, 12° 24' W Click for more
168368 CTD/STD cast 1978-08-30 07:40Z 58° 54' N, 12° 24' W Click for more
168381 CTD/STD cast 1978-08-30 07:45Z 58° 54' N, 12° 24' W Click for more
168393 CTD/STD cast 1978-08-30 07:50Z 58° 54' N, 12° 24' W Click for more
168400 CTD/STD cast 1978-08-30 07:55Z 58° 54' N, 12° 24' W Click for more
168412 CTD/STD cast 1978-08-30 08:00Z 58° 54' N, 12° 24' W Click for more
168424 CTD/STD cast 1978-08-30 08:05Z 58° 54' N, 12° 24' W Click for more
168436 CTD/STD cast 1978-08-30 08:10Z 58° 54' N, 12° 24' W Click for more
168448 CTD/STD cast 1978-08-30 08:15Z 58° 54' N, 12° 24' W Click for more
168461 CTD/STD cast 1978-08-30 08:20Z 58° 54' N, 12° 24' W Click for more
168473 CTD/STD cast 1978-08-30 08:30Z 58° 54' N, 12° 23' W Click for more
168485 CTD/STD cast 1978-08-30 08:35Z 58° 54' N, 12° 23' W Click for more
168497 CTD/STD cast 1978-08-30 08:45Z 58° 54' N, 12° 23' W Click for more
168504 CTD/STD cast 1978-08-30 08:50Z 58° 54' N, 12° 23' W Click for more
168516 CTD/STD cast 1978-08-30 08:55Z 58° 54' N, 12° 23' W Click for more
168528 CTD/STD cast 1978-08-30 09:00Z 58° 54' N, 12° 23' W Click for more
168541 CTD/STD cast 1978-08-30 09:05Z 58° 54' N, 12° 23' W Click for more
168553 CTD/STD cast 1978-08-30 09:10Z 58° 54' N, 12° 23' W Click for more
168565 CTD/STD cast 1978-08-30 09:15Z 58° 54' N, 12° 23' W Click for more
168577 CTD/STD cast 1978-08-30 09:20Z 58° 54' N, 12° 23' W Click for more
168589 CTD/STD cast 1978-08-30 09:25Z 58° 54' N, 12° 23' W Click for more
168590 CTD/STD cast 1978-08-30 09:30Z 58° 54' N, 12° 23' W Click for more
168608 CTD/STD cast 1978-08-30 09:35Z 58° 54' N, 12° 23' W Click for more
168621 CTD/STD cast 1978-08-30 09:40Z 58° 54' N, 12° 23' W Click for more
168633 CTD/STD cast 1978-08-30 09:45Z 58° 54' N, 12° 23' W Click for more
168645 CTD/STD cast 1978-08-30 09:50Z 58° 54' N, 12° 23' W Click for more
168657 CTD/STD cast 1978-08-30 09:55Z 58° 54' N, 12° 23' W Click for more
168669 CTD/STD cast 1978-08-30 10:00Z 58° 54' N, 12° 23' W Click for more
168670 CTD/STD cast 1978-08-30 10:05Z 58° 54' N, 12° 23' W Click for more
168682 CTD/STD cast 1978-08-30 10:10Z 58° 54' N, 12° 23' W Click for more
168694 CTD/STD cast 1978-08-30 10:15Z 58° 54' N, 12° 23' W Click for more
168701 CTD/STD cast 1978-08-30 10:20Z 58° 54' N, 12° 23' W Click for more
168713 CTD/STD cast 1978-08-30 10:25Z 58° 54' N, 12° 23' W Click for more
168725 CTD/STD cast 1978-08-30 10:30Z 58° 54' N, 12° 23' W Click for more
168737 CTD/STD cast 1978-08-30 10:35Z 58° 54' N, 12° 23' W Click for more
168749 CTD/STD cast 1978-08-30 10:40Z 58° 54' N, 12° 23' W Click for more
168750 CTD/STD cast 1978-08-30 10:45Z 58° 54' N, 12° 23' W Click for more
168762 CTD/STD cast 1978-08-30 10:50Z 58° 54' N, 12° 23' W Click for more
168774 CTD/STD cast 1978-08-30 10:55Z 58° 54' N, 12° 23' W Click for more
168786 CTD/STD cast 1978-08-30 11:00Z 58° 54' N, 12° 23' W Click for more
168798 CTD/STD cast 1978-08-30 11:05Z 58° 54' N, 12° 23' W Click for more
168805 CTD/STD cast 1978-08-30 11:10Z 58° 54' N, 12° 23' W Click for more
168817 CTD/STD cast 1978-08-30 11:15Z 58° 54' N, 12° 23' W Click for more
168829 CTD/STD cast 1978-08-30 11:20Z 58° 54' N, 12° 23' W Click for more
168830 CTD/STD cast 1978-08-30 11:25Z 58° 54' N, 12° 23' W Click for more
168842 CTD/STD cast 1978-08-30 11:30Z 58° 54' N, 12° 23' W Click for more
168854 CTD/STD cast 1978-08-30 11:35Z 58° 54' N, 12° 23' W Click for more
168866 CTD/STD cast 1978-08-30 11:40Z 58° 54' N, 12° 23' W Click for more
168878 CTD/STD cast 1978-08-30 11:45Z 58° 54' N, 12° 23' W Click for more
168891 CTD/STD cast 1978-08-30 11:50Z 58° 54' N, 12° 23' W Click for more
168909 CTD/STD cast 1978-08-30 11:55Z 58° 54' N, 12° 23' W Click for more
168910 CTD/STD cast 1978-08-31 00:10Z 58° 54' N, 12° 13' W Click for more
168922 CTD/STD cast 1978-08-31 00:16Z 58° 54' N, 12° 13' W Click for more
168934 CTD/STD cast 1978-08-31 00:25Z 58° 54' N, 12° 13' W Click for more
168946 CTD/STD cast 1978-08-31 00:30Z 58° 54' N, 12° 13' W Click for more
168958 CTD/STD cast 1978-08-31 00:35Z 58° 54' N, 12° 13' W Click for more
168971 CTD/STD cast 1978-08-31 00:40Z 58° 54' N, 12° 13' W Click for more
168983 CTD/STD cast 1978-08-31 00:45Z 58° 54' N, 12° 13' W Click for more
168995 CTD/STD cast 1978-08-31 00:50Z 58° 54' N, 12° 13' W Click for more
169009 CTD/STD cast 1978-08-31 00:55Z 58° 54' N, 12° 13' W Click for more
169010 CTD/STD cast 1978-08-31 01:00Z 58° 54' N, 12° 13' W Click for more
169022 CTD/STD cast 1978-08-31 01:05Z 58° 54' N, 12° 13' W Click for more
169034 CTD/STD cast 1978-08-31 01:10Z 58° 54' N, 12° 13' W Click for more
169046 CTD/STD cast 1978-08-31 01:15Z 58° 54' N, 12° 13' W Click for more
169058 CTD/STD cast 1978-08-31 01:20Z 58° 54' N, 12° 13' W Click for more
169071 CTD/STD cast 1978-08-31 01:25Z 58° 54' N, 12° 13' W Click for more
169083 CTD/STD cast 1978-08-31 01:30Z 58° 54' N, 12° 13' W Click for more
169095 CTD/STD cast 1978-08-31 01:35Z 58° 54' N, 12° 13' W Click for more
169102 CTD/STD cast 1978-08-31 01:40Z 58° 54' N, 12° 13' W Click for more
169114 CTD/STD cast 1978-08-31 01:45Z 58° 54' N, 12° 13' W Click for more
169126 CTD/STD cast 1978-08-31 01:50Z 58° 54' N, 12° 13' W Click for more
169138 CTD/STD cast 1978-08-31 01:55Z 58° 54' N, 12° 13' W Click for more
169151 CTD/STD cast 1978-08-31 02:00Z 58° 54' N, 12° 13' W Click for more
169163 CTD/STD cast 1978-08-31 02:05Z 58° 54' N, 12° 13' W Click for more
169175 CTD/STD cast 1978-08-31 02:10Z 58° 54' N, 12° 13' W Click for more
169187 CTD/STD cast 1978-08-31 02:15Z 58° 54' N, 12° 13' W Click for more
169199 CTD/STD cast 1978-08-31 02:20Z 58° 54' N, 12° 13' W Click for more
169206 CTD/STD cast 1978-08-31 02:25Z 58° 54' N, 12° 13' W Click for more
169218 CTD/STD cast 1978-08-31 02:30Z 58° 54' N, 12° 13' W Click for more
169231 CTD/STD cast 1978-08-31 02:35Z 58° 54' N, 12° 13' W Click for more
169243 CTD/STD cast 1978-08-31 02:40Z 58° 54' N, 12° 13' W Click for more
169255 CTD/STD cast 1978-08-31 02:45Z 58° 54' N, 12° 13' W Click for more
169267 CTD/STD cast 1978-08-31 02:50Z 58° 54' N, 12° 13' W Click for more
169279 CTD/STD cast 1978-08-31 02:55Z 58° 54' N, 12° 13' W Click for more
169280 CTD/STD cast 1978-08-31 03:00Z 58° 54' N, 12° 13' W Click for more
169292 CTD/STD cast 1978-08-31 03:05Z 58° 54' N, 12° 13' W Click for more
169311 CTD/STD cast 1978-08-31 03:10Z 58° 54' N, 12° 13' W Click for more
169323 CTD/STD cast 1978-08-31 03:15Z 58° 54' N, 12° 13' W Click for more
169335 CTD/STD cast 1978-08-31 03:20Z 58° 54' N, 12° 13' W Click for more
169347 CTD/STD cast 1978-08-31 03:25Z 58° 54' N, 12° 13' W Click for more
169359 CTD/STD cast 1978-08-31 03:30Z 58° 54' N, 12° 13' W Click for more
169360 CTD/STD cast 1978-08-31 03:35Z 58° 54' N, 12° 13' W Click for more
169372 CTD/STD cast 1978-08-31 03:40Z 58° 54' N, 12° 13' W Click for more
169384 CTD/STD cast 1978-08-31 03:45Z 58° 54' N, 12° 13' W Click for more
169396 CTD/STD cast 1978-08-31 03:50Z 58° 54' N, 12° 13' W Click for more
169403 CTD/STD cast 1978-08-31 03:55Z 58° 54' N, 12° 13' W Click for more
169415 CTD/STD cast 1978-08-31 04:00Z 58° 54' N, 12° 13' W Click for more
169427 CTD/STD cast 1978-08-31 04:05Z 58° 54' N, 12° 13' W Click for more
169439 CTD/STD cast 1978-08-31 04:10Z 58° 54' N, 12° 13' W Click for more
169440 CTD/STD cast 1978-08-31 04:15Z 58° 54' N, 12° 13' W Click for more
169452 CTD/STD cast 1978-08-31 04:20Z 58° 54' N, 12° 13' W Click for more
169464 CTD/STD cast 1978-08-31 04:25Z 58° 54' N, 12° 13' W Click for more
169476 CTD/STD cast 1978-08-31 04:30Z 58° 54' N, 12° 13' W Click for more
169488 CTD/STD cast 1978-08-31 04:35Z 58° 54' N, 12° 13' W Click for more
169507 CTD/STD cast 1978-08-31 04:40Z 58° 54' N, 12° 13' W Click for more
169519 CTD/STD cast 1978-08-31 04:45Z 58° 54' N, 12° 13' W Click for more
169520 CTD/STD cast 1978-08-31 04:50Z 58° 54' N, 12° 13' W Click for more
169532 CTD/STD cast 1978-08-31 04:55Z 58° 54' N, 12° 13' W Click for more
169544 CTD/STD cast 1978-08-31 05:00Z 58° 54' N, 12° 13' W Click for more
169556 CTD/STD cast 1978-08-31 05:05Z 58° 54' N, 12° 13' W Click for more
169568 CTD/STD cast 1978-08-31 05:10Z 58° 54' N, 12° 13' W Click for more
169581 CTD/STD cast 1978-08-31 05:15Z 58° 54' N, 12° 13' W Click for more
169593 CTD/STD cast 1978-08-31 05:20Z 58° 54' N, 12° 13' W Click for more
169600 CTD/STD cast 1978-08-31 05:25Z 58° 54' N, 12° 13' W Click for more
169612 CTD/STD cast 1978-08-31 05:30Z 58° 54' N, 12° 13' W Click for more
169624 CTD/STD cast 1978-08-31 05:35Z 58° 54' N, 12° 13' W Click for more
169636 CTD/STD cast 1978-08-31 05:40Z 58° 54' N, 12° 13' W Click for more
169648 CTD/STD cast 1978-08-31 05:45Z 58° 54' N, 12° 13' W Click for more
169661 CTD/STD cast 1978-08-31 05:50Z 58° 54' N, 12° 13' W Click for more
169673 CTD/STD cast 1978-08-31 05:55Z 58° 54' N, 12° 13' W Click for more
169685 CTD/STD cast 1978-08-31 06:10Z 58° 51' N, 12° 12' W Click for more
169697 CTD/STD cast 1978-08-31 06:15Z 58° 51' N, 12° 12' W Click for more
169704 CTD/STD cast 1978-08-31 06:20Z 58° 51' N, 12° 12' W Click for more
169716 CTD/STD cast 1978-08-31 06:25Z 58° 51' N, 12° 12' W Click for more
169728 CTD/STD cast 1978-08-31 06:30Z 58° 51' N, 12° 12' W Click for more
169741 CTD/STD cast 1978-08-31 06:35Z 58° 51' N, 12° 12' W Click for more
169753 CTD/STD cast 1978-08-31 06:40Z 58° 51' N, 12° 12' W Click for more
169765 CTD/STD cast 1978-08-31 06:45Z 58° 51' N, 12° 12' W Click for more
169777 CTD/STD cast 1978-08-31 06:50Z 58° 51' N, 12° 12' W Click for more
169789 CTD/STD cast 1978-08-31 06:55Z 58° 51' N, 12° 12' W Click for more
169790 CTD/STD cast 1978-08-31 07:00Z 58° 51' N, 12° 12' W Click for more
169808 CTD/STD cast 1978-08-31 07:05Z 58° 51' N, 12° 12' W Click for more
169821 CTD/STD cast 1978-08-31 07:10Z 58° 51' N, 12° 12' W Click for more
169833 CTD/STD cast 1978-08-31 07:15Z 58° 51' N, 12° 12' W Click for more
169845 CTD/STD cast 1978-08-31 07:20Z 58° 51' N, 12° 12' W Click for more
169857 CTD/STD cast 1978-08-31 07:25Z 58° 51' N, 12° 12' W Click for more
169869 CTD/STD cast 1978-08-31 07:30Z 58° 51' N, 12° 12' W Click for more
169870 CTD/STD cast 1978-08-31 07:35Z 58° 51' N, 12° 12' W Click for more
169882 CTD/STD cast 1978-08-31 07:40Z 58° 51' N, 12° 12' W Click for more
169894 CTD/STD cast 1978-08-31 07:45Z 58° 51' N, 12° 12' W Click for more
169901 CTD/STD cast 1978-08-31 07:50Z 58° 51' N, 12° 12' W Click for more
169913 CTD/STD cast 1978-08-31 07:55Z 58° 51' N, 12° 12' W Click for more
169925 CTD/STD cast 1978-08-31 22:00Z 58° 58' N, 12° 25' W Click for more
169937 CTD/STD cast 1978-08-31 22:10Z 58° 58' N, 12° 25' W Click for more
169949 CTD/STD cast 1978-08-31 22:15Z 58° 58' N, 12° 25' W Click for more
169950 CTD/STD cast 1978-08-31 22:20Z 58° 58' N, 12° 25' W Click for more
169962 CTD/STD cast 1978-08-31 22:25Z 58° 58' N, 12° 25' W Click for more
169974 CTD/STD cast 1978-08-31 22:30Z 58° 58' N, 12° 25' W Click for more
169986 CTD/STD cast 1978-08-31 22:35Z 58° 58' N, 12° 25' W Click for more
169998 CTD/STD cast 1978-08-31 22:40Z 58° 58' N, 12° 25' W Click for more
170011 CTD/STD cast 1978-08-31 22:45Z 58° 58' N, 12° 25' W Click for more
170023 CTD/STD cast 1978-08-31 23:15Z 59° 0' N, 12° 24' W Click for more
170035 CTD/STD cast 1978-08-31 23:40Z 59° 1' N, 12° 24' W Click for more
170047 CTD/STD cast 1978-09-01 00:04Z 59° 2' N, 12° 25' W Click for more
170059 CTD/STD cast 1978-09-01 00:29Z 59° 2' N, 12° 27' W Click for more
170060 CTD/STD cast 1978-09-01 00:53Z 59° 2' N, 12° 30' W Click for more
170072 CTD/STD cast 1978-09-01 01:19Z 59° 2' N, 12° 33' W Click for more
170084 CTD/STD cast 1978-09-01 01:44Z 59° 2' N, 12° 36' W Click for more
170096 CTD/STD cast 1978-09-01 02:08Z 59° 1' N, 12° 36' W Click for more
170103 CTD/STD cast 1978-09-01 02:32Z 59° 0' N, 12° 36' W Click for more
170115 CTD/STD cast 1978-09-01 03:00Z 58° 58' N, 12° 36' W Click for more
170127 CTD/STD cast 1978-09-01 03:24Z 58° 58' N, 12° 34' W Click for more
170139 CTD/STD cast 1978-09-01 03:50Z 58° 58' N, 12° 30' W Click for more
170140 CTD/STD cast 1978-09-01 04:16Z 58° 56' N, 12° 27' W Click for more
170152 CTD/STD cast 1978-09-01 04:36Z 58° 58' N, 12° 24' W Click for more
170164 CTD/STD cast 1978-09-01 05:25Z 59° 0' N, 12° 24' W Click for more
170176 CTD/STD cast 1978-09-01 05:50Z 59° 1' N, 12° 25' W Click for more
170188 CTD/STD cast 1978-09-01 06:15Z 59° 2' N, 12° 25' W Click for more
170207 CTD/STD cast 1978-09-01 06:40Z 59° 2' N, 12° 27' W Click for more
170219 CTD/STD cast 1978-09-01 07:05Z 59° 2' N, 12° 30' W Click for more
170220 CTD/STD cast 1978-09-01 07:30Z 59° 2' N, 12° 33' W Click for more
170232 CTD/STD cast 1978-09-01 07:55Z 59° 2' N, 12° 36' W Click for more
170244 CTD/STD cast 1978-09-01 08:20Z 59° 1' N, 12° 36' W Click for more
170256 CTD/STD cast 1978-09-01 08:45Z 59° 0' N, 12° 36' W Click for more
170268 CTD/STD cast 1978-09-01 09:10Z 58° 58' N, 12° 36' W Click for more
170281 CTD/STD cast 1978-09-01 09:36Z 58° 58' N, 12° 34' W Click for more
170293 CTD/STD cast 1978-09-01 10:01Z 58° 58' N, 12° 30' W Click for more
170300 CTD/STD cast 1978-09-01 10:26Z 58° 58' N, 12° 22' W Click for more
170312 CTD/STD cast 1978-09-01 10:52Z 58° 58' N, 12° 25' W Click for more
170324 CTD/STD cast 1978-09-01 11:05Z 58° 58' N, 12° 25' W Click for more
170336 CTD/STD cast 1978-09-01 14:15Z 59° 3' N, 12° 24' W Click for more
170348 CTD/STD cast 1978-09-01 15:12Z 59° 3' N, 12° 37' W Click for more
170361 CTD/STD cast 1978-09-01 16:00Z 58° 58' N, 12° 36' W Click for more
170373 CTD/STD cast 1978-09-01 18:10Z 58° 51' N, 12° 24' W Click for more
170385 CTD/STD cast 1978-09-01 19:08Z 58° 51' N, 12° 13' W Click for more
170404 CTD/STD cast 1978-09-01 20:10Z 58° 57' N, 12° 13' W Click for more
170416 CTD/STD cast 1978-09-01 21:05Z 59° 3' N, 12° 13' W Click for more
170428 CTD/STD cast 1978-09-01 22:01Z 59° 9' N, 12° 13' W Click for more
170441 CTD/STD cast 1978-09-01 22:55Z 59° 9' N, 12° 24' W Click for more
170453 CTD/STD cast 1978-09-01 23:51Z 59° 9' N, 12° 36' W Click for more
170465 CTD/STD cast 1978-09-02 00:47Z 59° 10' N, 12° 48' W Click for more
170477 CTD/STD cast 1978-09-02 01:40Z 59° 4' N, 12° 47' W Click for more
170489 CTD/STD cast 1978-09-02 02:33Z 58° 59' N, 12° 46' W Click for more
170490 CTD/STD cast 1978-09-02 03:30Z 58° 52' N, 12° 46' W Click for more
170508 CTD/STD cast 1978-09-02 04:30Z 58° 51' N, 12° 36' W Click for more
170521 CTD/STD cast 1978-09-02 05:28Z 58° 51' N, 12° 25' W Click for more
170533 CTD/STD cast 1978-09-02 10:15Z 59° 26' N, 12° 29' W Click for more
170545 CTD/STD cast 1978-09-02 10:40Z 59° 26' N, 12° 29' W Click for more
170557 CTD/STD cast 1978-09-02 10:45Z 59° 26' N, 12° 29' W Click for more
170569 CTD/STD cast 1978-09-02 10:50Z 59° 26' N, 12° 29' W Click for more
170570 CTD/STD cast 1978-09-02 10:55Z 59° 26' N, 12° 29' W Click for more
170582 CTD/STD cast 1978-09-02 11:00Z 59° 26' N, 12° 29' W Click for more
170594 CTD/STD cast 1978-09-02 11:05Z 59° 26' N, 12° 29' W Click for more
170601 CTD/STD cast 1978-09-02 11:10Z 59° 26' N, 12° 29' W Click for more
170613 CTD/STD cast 1978-09-02 11:15Z 59° 26' N, 12° 29' W Click for more
170625 CTD/STD cast 1978-09-02 11:20Z 59° 26' N, 12° 29' W Click for more
170637 CTD/STD cast 1978-09-02 11:25Z 59° 26' N, 12° 29' W Click for more
170649 CTD/STD cast 1978-09-02 11:30Z 59° 26' N, 12° 29' W Click for more
170650 CTD/STD cast 1978-09-02 11:35Z 59° 26' N, 12° 29' W Click for more
170662 CTD/STD cast 1978-09-02 11:40Z 59° 26' N, 12° 29' W Click for more
170674 CTD/STD cast 1978-09-02 11:45Z 59° 26' N, 12° 29' W Click for more
170686 CTD/STD cast 1978-09-02 11:50Z 59° 26' N, 12° 29' W Click for more
170698 CTD/STD cast 1978-09-02 11:55Z 59° 26' N, 12° 29' W Click for more
170705 CTD/STD cast 1978-09-02 12:00Z 59° 26' N, 12° 29' W Click for more
170717 CTD/STD cast 1978-09-02 12:05Z 59° 26' N, 12° 29' W Click for more
170729 CTD/STD cast 1978-09-02 12:10Z 59° 26' N, 12° 29' W Click for more
170730 CTD/STD cast 1978-09-02 12:15Z 59° 26' N, 12° 29' W Click for more
170742 CTD/STD cast 1978-09-02 12:20Z 59° 26' N, 12° 29' W Click for more
170754 CTD/STD cast 1978-09-02 12:25Z 59° 26' N, 12° 29' W Click for more
170766 CTD/STD cast 1978-09-02 12:30Z 59° 26' N, 12° 29' W Click for more
170778 CTD/STD cast 1978-09-02 12:35Z 59° 26' N, 12° 29' W Click for more
170791 CTD/STD cast 1978-09-02 12:40Z 59° 26' N, 12° 29' W Click for more
170809 CTD/STD cast 1978-09-02 12:45Z 59° 26' N, 12° 29' W Click for more
170810 CTD/STD cast 1978-09-02 12:50Z 59° 26' N, 12° 29' W Click for more
170822 CTD/STD cast 1978-09-02 12:55Z 59° 26' N, 12° 29' W Click for more
170834 CTD/STD cast 1978-09-02 13:00Z 59° 26' N, 12° 29' W Click for more
170846 CTD/STD cast 1978-09-02 13:05Z 59° 26' N, 12° 29' W Click for more
170858 CTD/STD cast 1978-09-02 13:10Z 59° 26' N, 12° 29' W Click for more
170871 CTD/STD cast 1978-09-02 13:15Z 59° 26' N, 12° 29' W Click for more
170883 CTD/STD cast 1978-09-02 13:20Z 59° 26' N, 12° 29' W Click for more
170895 CTD/STD cast 1978-09-02 13:25Z 59° 26' N, 12° 29' W Click for more
170902 CTD/STD cast 1978-09-02 13:30Z 59° 26' N, 12° 29' W Click for more
170914 CTD/STD cast 1978-09-02 13:35Z 59° 26' N, 12° 29' W Click for more
170926 CTD/STD cast 1978-09-02 13:40Z 59° 26' N, 12° 29' W Click for more
170938 CTD/STD cast 1978-09-02 13:45Z 59° 26' N, 12° 29' W Click for more
170951 CTD/STD cast 1978-09-02 13:50Z 59° 26' N, 12° 29' W Click for more
170963 CTD/STD cast 1978-09-02 13:55Z 59° 26' N, 12° 29' W Click for more
170975 CTD/STD cast 1978-09-02 14:00Z 59° 26' N, 12° 29' W Click for more
170987 CTD/STD cast 1978-09-02 14:05Z 59° 26' N, 12° 29' W Click for more
170999 CTD/STD cast 1978-09-02 14:10Z 59° 26' N, 12° 29' W Click for more
171002 CTD/STD cast 1978-09-02 14:15Z 59° 26' N, 12° 29' W Click for more
171014 CTD/STD cast 1978-09-02 14:20Z 59° 26' N, 12° 29' W Click for more
171026 CTD/STD cast 1978-09-02 14:25Z 59° 26' N, 12° 29' W Click for more
171038 CTD/STD cast 1978-09-02 14:30Z 59° 26' N, 12° 29' W Click for more
171051 CTD/STD cast 1978-09-02 14:35Z 59° 26' N, 12° 29' W Click for more
171063 CTD/STD cast 1978-09-02 14:40Z 59° 26' N, 12° 29' W Click for more
171075 CTD/STD cast 1978-09-02 14:45Z 59° 26' N, 12° 29' W Click for more
171087 CTD/STD cast 1978-09-02 14:50Z 59° 26' N, 12° 29' W Click for more
171099 CTD/STD cast 1978-09-02 14:55Z 59° 26' N, 12° 29' W Click for more
171106 CTD/STD cast 1978-09-02 15:00Z 59° 26' N, 12° 29' W Click for more
171118 CTD/STD cast 1978-09-02 15:10Z 59° 26' N, 12° 29' W Click for more
171131 CTD/STD cast 1978-09-02 15:15Z 59° 26' N, 12° 30' W Click for more
171143 CTD/STD cast 1978-09-02 15:20Z 59° 26' N, 12° 30' W Click for more
171155 CTD/STD cast 1978-09-02 15:25Z 59° 26' N, 12° 30' W Click for more
171167 CTD/STD cast 1978-09-02 15:30Z 59° 26' N, 12° 30' W Click for more
171179 CTD/STD cast 1978-09-02 15:35Z 59° 26' N, 12° 30' W Click for more
171180 CTD/STD cast 1978-09-02 15:40Z 59° 26' N, 12° 30' W Click for more
171192 CTD/STD cast 1978-09-02 15:45Z 59° 26' N, 12° 30' W Click for more
171211 CTD/STD cast 1978-09-02 15:50Z 59° 26' N, 12° 30' W Click for more
171223 CTD/STD cast 1978-09-02 15:55Z 59° 26' N, 12° 30' W Click for more
171235 CTD/STD cast 1978-09-02 16:00Z 59° 26' N, 12° 30' W Click for more
171247 CTD/STD cast 1978-09-02 16:05Z 59° 26' N, 12° 30' W Click for more
171259 CTD/STD cast 1978-09-02 16:10Z 59° 26' N, 12° 30' W Click for more
171260 CTD/STD cast 1978-09-02 16:15Z 59° 26' N, 12° 30' W Click for more
171272 CTD/STD cast 1978-09-02 16:20Z 59° 26' N, 12° 30' W Click for more
171284 CTD/STD cast 1978-09-02 16:25Z 59° 26' N, 12° 30' W Click for more
171296 CTD/STD cast 1978-09-02 16:30Z 59° 26' N, 12° 30' W Click for more
171303 CTD/STD cast 1978-09-02 16:35Z 59° 26' N, 12° 30' W Click for more
171315 CTD/STD cast 1978-09-02 16:40Z 59° 26' N, 12° 30' W Click for more
171327 CTD/STD cast 1978-09-02 16:45Z 59° 26' N, 12° 30' W Click for more
171339 CTD/STD cast 1978-09-02 16:50Z 59° 26' N, 12° 30' W Click for more
171340 CTD/STD cast 1978-09-02 16:55Z 59° 26' N, 12° 30' W Click for more
171352 CTD/STD cast 1978-09-02 17:00Z 59° 26' N, 12° 30' W Click for more
171364 CTD/STD cast 1978-09-02 17:05Z 59° 26' N, 12° 30' W Click for more
171376 CTD/STD cast 1978-09-02 17:10Z 59° 26' N, 12° 30' W Click for more
171388 CTD/STD cast 1978-09-02 17:15Z 59° 26' N, 12° 30' W Click for more
171407 CTD/STD cast 1978-09-02 17:20Z 59° 26' N, 12° 30' W Click for more
171419 CTD/STD cast 1978-09-02 17:25Z 59° 26' N, 12° 30' W Click for more
171420 CTD/STD cast 1978-09-02 17:30Z 59° 26' N, 12° 30' W Click for more
171432 CTD/STD cast 1978-09-02 17:35Z 59° 26' N, 12° 30' W Click for more
171444 CTD/STD cast 1978-09-02 17:40Z 59° 26' N, 12° 30' W Click for more
171456 CTD/STD cast 1978-09-02 17:45Z 59° 26' N, 12° 30' W Click for more
171468 CTD/STD cast 1978-09-02 17:50Z 59° 26' N, 12° 30' W Click for more
171481 CTD/STD cast 1978-09-02 17:55Z 59° 26' N, 12° 30' W Click for more
171493 CTD/STD cast 1978-09-02 18:00Z 59° 26' N, 12° 30' W Click for more
171500 CTD/STD cast 1978-09-02 18:05Z 59° 26' N, 12° 30' W Click for more
171512 CTD/STD cast 1978-09-02 18:10Z 59° 26' N, 12° 30' W Click for more
171524 CTD/STD cast 1978-09-02 18:15Z 59° 26' N, 12° 30' W Click for more
171536 CTD/STD cast 1978-09-02 18:20Z 59° 26' N, 12° 30' W Click for more
171548 CTD/STD cast 1978-09-02 18:25Z 59° 26' N, 12° 30' W Click for more
171561 CTD/STD cast 1978-09-02 18:30Z 59° 26' N, 12° 30' W Click for more
171573 CTD/STD cast 1978-09-02 18:35Z 59° 26' N, 12° 30' W Click for more
171585 CTD/STD cast 1978-09-02 18:40Z 59° 26' N, 12° 30' W Click for more
171597 CTD/STD cast 1978-09-02 18:45Z 59° 26' N, 12° 30' W Click for more
171604 CTD/STD cast 1978-09-02 18:50Z 59° 26' N, 12° 30' W Click for more
171616 CTD/STD cast 1978-09-02 18:55Z 59° 26' N, 12° 30' W Click for more
171628 CTD/STD cast 1978-09-02 19:00Z 59° 26' N, 12° 30' W Click for more
171641 CTD/STD cast 1978-09-02 19:05Z 59° 26' N, 12° 30' W Click for more
171653 CTD/STD cast 1978-09-02 19:10Z 59° 26' N, 12° 30' W Click for more
171665 CTD/STD cast 1978-09-02 19:15Z 59° 26' N, 12° 30' W Click for more
171677 CTD/STD cast 1978-09-02 19:20Z 59° 26' N, 12° 30' W Click for more
171689 CTD/STD cast 1978-09-02 19:25Z 59° 26' N, 12° 30' W Click for more
171690 CTD/STD cast 1978-09-02 19:30Z 59° 26' N, 12° 30' W Click for more
171708 CTD/STD cast 1978-09-02 19:35Z 59° 26' N, 12° 30' W Click for more
171721 CTD/STD cast 1978-09-02 19:40Z 59° 26' N, 12° 30' W Click for more
171733 CTD/STD cast 1978-09-02 19:45Z 59° 26' N, 12° 30' W Click for more
171745 CTD/STD cast 1978-09-02 19:50Z 59° 26' N, 12° 30' W Click for more
171757 CTD/STD cast 1978-09-02 19:55Z 59° 26' N, 12° 30' W Click for more
171769 CTD/STD cast 1978-09-02 20:00Z 59° 26' N, 12° 30' W Click for more
171770 CTD/STD cast 1978-09-02 20:05Z 59° 26' N, 12° 30' W Click for more
171782 CTD/STD cast 1978-09-02 20:10Z 59° 26' N, 12° 30' W Click for more
171794 CTD/STD cast 1978-09-02 20:15Z 59° 26' N, 12° 30' W Click for more
171801 CTD/STD cast 1978-09-02 20:20Z 59° 26' N, 12° 30' W Click for more
171813 CTD/STD cast 1978-09-02 20:25Z 59° 26' N, 12° 30' W Click for more
171825 CTD/STD cast 1978-09-02 20:30Z 59° 26' N, 12° 30' W Click for more
171837 CTD/STD cast 1978-09-02 20:35Z 59° 26' N, 12° 30' W Click for more
171849 CTD/STD cast 1978-09-02 20:40Z 59° 26' N, 12° 30' W Click for more
171850 CTD/STD cast 1978-09-02 20:45Z 59° 26' N, 12° 30' W Click for more
171862 CTD/STD cast 1978-09-02 20:50Z 59° 26' N, 12° 30' W Click for more
171874 CTD/STD cast 1978-09-02 21:00Z 59° 26' N, 12° 29' W Click for more
171886 CTD/STD cast 1978-09-02 21:05Z 59° 26' N, 12° 29' W Click for more
171898 CTD/STD cast 1978-09-02 21:10Z 59° 26' N, 12° 29' W Click for more
171905 CTD/STD cast 1978-09-02 21:15Z 59° 26' N, 12° 29' W Click for more
171917 CTD/STD cast 1978-09-02 21:20Z 59° 26' N, 12° 29' W Click for more
171929 CTD/STD cast 1978-09-02 21:25Z 59° 26' N, 12° 29' W Click for more
171930 CTD/STD cast 1978-09-02 21:30Z 59° 26' N, 12° 29' W Click for more
171942 CTD/STD cast 1978-09-02 21:35Z 59° 26' N, 12° 29' W Click for more
171954 CTD/STD cast 1978-09-02 21:40Z 59° 26' N, 12° 29' W Click for more
171966 CTD/STD cast 1978-09-02 21:45Z 59° 26' N, 12° 29' W Click for more
171978 CTD/STD cast 1978-09-02 21:50Z 59° 26' N, 12° 29' W Click for more
171991 CTD/STD cast 1978-09-02 21:55Z 59° 26' N, 12° 29' W Click for more
172005 CTD/STD cast 1978-09-02 22:00Z 59° 26' N, 12° 29' W Click for more
172017 CTD/STD cast 1978-09-02 22:05Z 59° 26' N, 12° 29' W Click for more
172029 CTD/STD cast 1978-09-02 22:10Z 59° 26' N, 12° 29' W Click for more
172030 CTD/STD cast 1978-09-02 22:15Z 59° 26' N, 12° 29' W Click for more
172042 CTD/STD cast 1978-09-02 22:20Z 59° 26' N, 12° 29' W Click for more
172054 CTD/STD cast 1978-09-02 22:25Z 59° 26' N, 12° 29' W Click for more
172066 CTD/STD cast 1978-09-02 22:30Z 59° 26' N, 12° 29' W Click for more
172078 CTD/STD cast 1978-09-02 22:35Z 59° 26' N, 12° 29' W Click for more
172091 CTD/STD cast 1978-09-02 22:40Z 59° 26' N, 12° 29' W Click for more
172109 CTD/STD cast 1978-09-02 22:45Z 59° 26' N, 12° 29' W Click for more
172110 CTD/STD cast 1978-09-02 22:50Z 59° 26' N, 12° 29' W Click for more
172122 CTD/STD cast 1978-09-02 22:55Z 59° 26' N, 12° 29' W Click for more
172134 CTD/STD cast 1978-09-02 23:00Z 59° 26' N, 12° 29' W Click for more
172146 CTD/STD cast 1978-09-02 23:05Z 59° 26' N, 12° 29' W Click for more
172158 CTD/STD cast 1978-09-02 23:10Z 59° 26' N, 12° 29' W Click for more
172171 CTD/STD cast 1978-09-02 23:15Z 59° 26' N, 12° 29' W Click for more
172183 CTD/STD cast 1978-09-02 23:20Z 59° 26' N, 12° 29' W Click for more
172195 CTD/STD cast 1978-09-02 23:25Z 59° 26' N, 12° 29' W Click for more
172202 CTD/STD cast 1978-09-02 23:30Z 59° 26' N, 12° 29' W Click for more
172214 CTD/STD cast 1978-09-02 23:35Z 59° 26' N, 12° 29' W Click for more
172226 CTD/STD cast 1978-09-02 23:40Z 59° 26' N, 12° 29' W Click for more
172238 CTD/STD cast 1978-09-02 23:45Z 59° 26' N, 12° 29' W Click for more
172251 CTD/STD cast 1978-09-02 23:50Z 59° 26' N, 12° 29' W Click for more
172263 CTD/STD cast 1978-09-02 23:55Z 59° 26' N, 12° 29' W Click for more
172275 CTD/STD cast 1978-09-03 00:00Z 59° 26' N, 12° 29' W Click for more
172287 CTD/STD cast 1978-09-03 00:05Z 59° 26' N, 12° 29' W Click for more
172299 CTD/STD cast 1978-09-03 00:10Z 59° 26' N, 12° 29' W Click for more
172306 CTD/STD cast 1978-09-03 00:15Z 59° 26' N, 12° 29' W Click for more
172318 CTD/STD cast 1978-09-03 00:20Z 59° 26' N, 12° 29' W Click for more
172331 CTD/STD cast 1978-09-03 00:25Z 59° 26' N, 12° 29' W Click for more
172343 CTD/STD cast 1978-09-03 00:30Z 59° 26' N, 12° 29' W Click for more
172355 CTD/STD cast 1978-09-03 00:35Z 59° 26' N, 12° 29' W Click for more
172367 CTD/STD cast 1978-09-03 00:40Z 59° 26' N, 12° 29' W Click for more
172379 CTD/STD cast 1978-09-03 00:45Z 59° 26' N, 12° 29' W Click for more
172380 CTD/STD cast 1978-09-03 00:50Z 59° 26' N, 12° 29' W Click for more
172392 CTD/STD cast 1978-09-03 00:55Z 59° 26' N, 12° 29' W Click for more
172411 CTD/STD cast 1978-09-03 01:00Z 59° 26' N, 12° 29' W Click for more
172423 CTD/STD cast 1978-09-03 01:05Z 59° 26' N, 12° 29' W Click for more
172435 CTD/STD cast 1978-09-03 01:10Z 59° 26' N, 12° 29' W Click for more
172447 CTD/STD cast 1978-09-03 01:15Z 59° 26' N, 12° 29' W Click for more
172459 CTD/STD cast 1978-09-03 01:20Z 59° 26' N, 12° 29' W Click for more
172460 CTD/STD cast 1978-09-03 01:25Z 59° 26' N, 12° 29' W Click for more
172472 CTD/STD cast 1978-09-03 01:30Z 59° 26' N, 12° 29' W Click for more
172484 CTD/STD cast 1978-09-03 01:35Z 59° 26' N, 12° 29' W Click for more
172496 CTD/STD cast 1978-09-03 01:40Z 59° 26' N, 12° 29' W Click for more
172503 CTD/STD cast 1978-09-03 01:45Z 59° 26' N, 12° 29' W Click for more
172515 CTD/STD cast 1978-09-03 01:50Z 59° 26' N, 12° 29' W Click for more
172527 CTD/STD cast 1978-09-03 01:55Z 59° 26' N, 12° 29' W Click for more
172539 CTD/STD cast 1978-09-03 02:00Z 59° 26' N, 12° 29' W Click for more
172540 CTD/STD cast 1978-09-03 02:05Z 59° 26' N, 12° 29' W Click for more
172552 CTD/STD cast 1978-09-03 02:10Z 59° 26' N, 12° 29' W Click for more
172564 CTD/STD cast 1978-09-03 02:15Z 59° 26' N, 12° 29' W Click for more
172576 CTD/STD cast 1978-09-03 02:20Z 59° 26' N, 12° 29' W Click for more
172588 CTD/STD cast 1978-09-03 02:25Z 59° 26' N, 12° 29' W Click for more
172607 CTD/STD cast 1978-09-03 02:30Z 59° 26' N, 12° 29' W Click for more
172619 CTD/STD cast 1978-09-03 02:40Z 59° 26' N, 12° 29' W Click for more
172620 CTD/STD cast 1978-09-03 02:45Z 59° 26' N, 12° 30' W Click for more
172632 CTD/STD cast 1978-09-03 02:50Z 59° 26' N, 12° 30' W Click for more
172644 CTD/STD cast 1978-09-03 02:55Z 59° 26' N, 12° 30' W Click for more
172656 CTD/STD cast 1978-09-03 03:00Z 59° 26' N, 12° 30' W Click for more
172668 CTD/STD cast 1978-09-03 03:05Z 59° 26' N, 12° 30' W Click for more
172681 CTD/STD cast 1978-09-03 03:10Z 59° 26' N, 12° 30' W Click for more
172693 CTD/STD cast 1978-09-03 03:15Z 59° 26' N, 12° 30' W Click for more
172700 CTD/STD cast 1978-09-03 03:20Z 59° 26' N, 12° 30' W Click for more
172712 CTD/STD cast 1978-09-03 03:25Z 59° 26' N, 12° 30' W Click for more
172724 CTD/STD cast 1978-09-03 03:30Z 59° 26' N, 12° 30' W Click for more
172736 CTD/STD cast 1978-09-03 03:35Z 59° 26' N, 12° 30' W Click for more
172748 CTD/STD cast 1978-09-03 03:40Z 59° 26' N, 12° 30' W Click for more
172761 CTD/STD cast 1978-09-03 03:45Z 59° 26' N, 12° 30' W Click for more
172773 CTD/STD cast 1978-09-03 03:50Z 59° 26' N, 12° 30' W Click for more
172785 CTD/STD cast 1978-09-03 03:55Z 59° 26' N, 12° 30' W Click for more
172797 CTD/STD cast 1978-09-03 04:00Z 59° 26' N, 12° 30' W Click for more
172804 CTD/STD cast 1978-09-03 04:05Z 59° 26' N, 12° 30' W Click for more
172816 CTD/STD cast 1978-09-03 04:10Z 59° 26' N, 12° 30' W Click for more
172828 CTD/STD cast 1978-09-03 04:15Z 59° 26' N, 12° 30' W Click for more
172841 CTD/STD cast 1978-09-03 04:20Z 59° 26' N, 12° 30' W Click for more
172853 CTD/STD cast 1978-09-03 04:25Z 59° 26' N, 12° 30' W Click for more
172865 CTD/STD cast 1978-09-03 04:30Z 59° 26' N, 12° 30' W Click for more
172877 CTD/STD cast 1978-09-03 04:35Z 59° 26' N, 12° 30' W Click for more
172889 CTD/STD cast 1978-09-03 04:40Z 59° 26' N, 12° 30' W Click for more
172890 CTD/STD cast 1978-09-03 04:45Z 59° 26' N, 12° 30' W Click for more
172908 CTD/STD cast 1978-09-03 04:50Z 59° 26' N, 12° 30' W Click for more
172921 CTD/STD cast 1978-09-03 04:55Z 59° 26' N, 12° 30' W Click for more
172933 CTD/STD cast 1978-09-03 05:00Z 59° 26' N, 12° 30' W Click for more
172945 CTD/STD cast 1978-09-03 05:05Z 59° 26' N, 12° 30' W Click for more
172957 CTD/STD cast 1978-09-03 05:10Z 59° 26' N, 12° 30' W Click for more
172969 CTD/STD cast 1978-09-03 05:15Z 59° 26' N, 12° 30' W Click for more
172970 CTD/STD cast 1978-09-03 05:20Z 59° 26' N, 12° 30' W Click for more
172982 CTD/STD cast 1978-09-03 05:25Z 59° 26' N, 12° 30' W Click for more
172994 CTD/STD cast 1978-09-03 05:30Z 59° 26' N, 12° 30' W Click for more
173008 CTD/STD cast 1978-09-03 05:35Z 59° 26' N, 12° 30' W Click for more
173021 CTD/STD cast 1978-09-03 05:40Z 59° 26' N, 12° 30' W Click for more
173033 CTD/STD cast 1978-09-03 05:45Z 59° 26' N, 12° 30' W Click for more
173045 CTD/STD cast 1978-09-03 05:50Z 59° 26' N, 12° 30' W Click for more
173057 CTD/STD cast 1978-09-03 05:55Z 59° 26' N, 12° 30' W Click for more
173069 CTD/STD cast 1978-09-03 09:30Z 58° 58' N, 12° 32' W Click for more
173070 CTD/STD cast 1978-09-03 10:00Z 58° 58' N, 12° 32' W Click for more
173082 CTD/STD cast 1978-09-03 10:30Z 58° 58' N, 12° 31' W Click for more
173094 CTD/STD cast 1978-09-03 11:00Z 58° 58' N, 12° 32' W Click for more
173101 CTD/STD cast 1978-09-03 11:30Z 58° 58' N, 12° 32' W Click for more
173113 CTD/STD cast 1978-09-03 12:00Z 58° 58' N, 12° 32' W Click for more
173125 CTD/STD cast 1978-09-03 12:30Z 58° 58' N, 12° 32' W Click for more
173137 CTD/STD cast 1978-09-03 13:00Z 58° 58' N, 12° 32' W Click for more
173149 CTD/STD cast 1978-09-03 13:30Z 58° 58' N, 12° 32' W Click for more
173150 CTD/STD cast 1978-09-03 14:00Z 58° 57' N, 12° 32' W Click for more
173162 CTD/STD cast 1978-09-03 14:30Z 58° 58' N, 12° 33' W Click for more
173174 CTD/STD cast 1978-09-03 15:00Z 58° 58' N, 12° 33' W Click for more
173186 CTD/STD cast 1978-09-03 15:30Z 58° 58' N, 12° 33' W Click for more
173198 CTD/STD cast 1978-09-03 17:00Z 58° 58' N, 12° 33' W Click for more
173205 CTD/STD cast 1978-09-03 17:30Z 58° 58' N, 12° 33' W Click for more
173217 CTD/STD cast 1978-09-03 18:00Z 58° 58' N, 12° 33' W Click for more
173229 CTD/STD cast 1978-09-03 18:30Z 58° 58' N, 12° 33' W Click for more
173230 CTD/STD cast 1978-09-03 19:00Z 58° 58' N, 12° 33' W Click for more
173242 CTD/STD cast 1978-09-03 19:30Z 58° 58' N, 12° 33' W Click for more
173254 CTD/STD cast 1978-09-03 20:00Z 58° 58' N, 12° 32' W Click for more
173266 CTD/STD cast 1978-09-03 20:30Z 58° 58' N, 12° 33' W Click for more
173278 CTD/STD cast 1978-09-03 21:00Z 58° 58' N, 12° 32' W Click for more
173291 CTD/STD cast 1978-09-03 21:30Z 58° 58' N, 12° 31' W Click for more
173309 CTD/STD cast 1978-09-03 22:00Z 58° 58' N, 12° 31' W Click for more
173310 CTD/STD cast 1978-09-03 22:30Z 58° 58' N, 12° 31' W Click for more
173322 CTD/STD cast 1978-09-03 23:30Z 58° 58' N, 12° 31' W Click for more
173334 CTD/STD cast 1978-09-04 00:00Z 58° 58' N, 12° 31' W Click for more
173346 CTD/STD cast 1978-09-04 00:30Z 58° 58' N, 12° 31' W Click for more
173358 CTD/STD cast 1978-09-04 01:00Z 58° 58' N, 12° 31' W Click for more
173383 CTD/STD cast 1978-09-04 01:30Z 58° 58' N, 12° 31' W Click for more
173395 CTD/STD cast 1978-09-04 02:00Z 58° 58' N, 12° 31' W Click for more
173402 CTD/STD cast 1978-09-04 02:30Z 58° 58' N, 12° 31' W Click for more
173414 CTD/STD cast 1978-09-04 03:00Z 58° 58' N, 12° 31' W Click for more
173426 CTD/STD cast 1978-09-04 03:30Z 58° 58' N, 12° 31' W Click for more
173438 CTD/STD cast 1978-09-04 04:00Z 58° 58' N, 12° 31' W Click for more
173451 CTD/STD cast 1978-09-04 04:30Z 58° 58' N, 12° 33' W Click for more
173463 CTD/STD cast 1978-09-04 05:00Z 58° 58' N, 12° 33' W Click for more
173475 CTD/STD cast 1978-09-04 05:30Z 58° 58' N, 12° 33' W Click for more
173487 CTD/STD cast 1978-09-04 06:00Z 58° 58' N, 12° 33' W Click for more
173499 CTD/STD cast 1978-09-04 06:30Z 58° 58' N, 12° 32' W Click for more
173506 CTD/STD cast 1978-09-04 07:00Z 58° 58' N, 12° 32' W Click for more
173518 CTD/STD cast 1978-09-04 07:30Z 58° 58' N, 12° 32' W Click for more
173531 CTD/STD cast 1978-09-04 08:00Z 58° 58' N, 12° 32' W Click for more
173543 CTD/STD cast 1978-09-04 08:30Z 58° 58' N, 12° 31' W Click for more
173555 CTD/STD cast 1978-09-04 09:00Z 58° 58' N, 12° 31' W Click for more
173567 CTD/STD cast 1978-09-04 09:30Z 58° 58' N, 12° 31' W Click for more
173579 CTD/STD cast 1978-09-04 10:00Z 58° 58' N, 12° 32' W Click for more
173580 CTD/STD cast 1978-09-04 10:30Z 58° 57' N, 12° 32' W Click for more
173592 CTD/STD cast 1978-09-04 11:00Z 58° 57' N, 12° 31' W Click for more
173611 CTD/STD cast 1978-09-04 11:30Z 58° 57' N, 12° 31' W Click for more
173623 CTD/STD cast 1978-09-04 21:50Z 58° 55' N, 12° 33' W Click for more
173635 CTD/STD cast 1978-09-04 22:10Z 58° 55' N, 12° 32' W Click for more
173647 CTD/STD cast 1978-09-04 22:30Z 58° 56' N, 12° 31' W Click for more
173659 CTD/STD cast 1978-09-04 22:50Z 58° 56' N, 12° 31' W Click for more
173660 CTD/STD cast 1978-09-04 23:10Z 58° 56' N, 12° 31' W Click for more
173672 CTD/STD cast 1978-09-04 23:30Z 58° 56' N, 12° 31' W Click for more
173684 CTD/STD cast 1978-09-04 23:50Z 58° 56' N, 12° 30' W Click for more
173696 CTD/STD cast 1978-09-05 00:10Z 58° 56' N, 12° 30' W Click for more
173703 CTD/STD cast 1978-09-05 00:30Z 58° 56' N, 12° 30' W Click for more
173715 CTD/STD cast 1978-09-05 01:10Z 58° 56' N, 12° 30' W Click for more
173727 CTD/STD cast 1978-09-05 01:30Z 58° 56' N, 12° 31' W Click for more
173739 CTD/STD cast 1978-09-05 01:50Z 58° 56' N, 12° 31' W Click for more
173740 CTD/STD cast 1978-09-05 02:10Z 58° 56' N, 12° 31' W Click for more
173752 CTD/STD cast 1978-09-05 02:30Z 58° 56' N, 12° 31' W Click for more
173764 CTD/STD cast 1978-09-05 02:50Z 58° 56' N, 12° 31' W Click for more
173776 CTD/STD cast 1978-09-05 03:10Z 58° 56' N, 12° 31' W Click for more
173788 CTD/STD cast 1978-09-05 03:30Z 58° 56' N, 12° 31' W Click for more
173807 CTD/STD cast 1978-09-05 03:50Z 58° 56' N, 12° 31' W Click for more
173819 CTD/STD cast 1978-09-05 04:10Z 58° 56' N, 12° 31' W Click for more
173820 CTD/STD cast 1978-09-05 04:30Z 58° 56' N, 12° 31' W Click for more
173832 CTD/STD cast 1978-09-05 04:50Z 58° 56' N, 12° 31' W Click for more
173844 CTD/STD cast 1978-09-05 05:10Z 58° 56' N, 12° 31' W Click for more
173856 CTD/STD cast 1978-09-05 05:30Z 58° 56' N, 12° 31' W Click for more
173868 CTD/STD cast 1978-09-05 05:50Z 58° 57' N, 12° 33' W Click for more
173881 CTD/STD cast 1978-09-05 06:10Z 58° 57' N, 12° 33' W Click for more
173893 CTD/STD cast 1978-09-05 06:30Z 58° 57' N, 12° 33' W Click for more
173900 CTD/STD cast 1978-09-05 06:50Z 58° 57' N, 12° 33' W Click for more
173912 CTD/STD cast 1978-09-05 07:10Z 58° 57' N, 12° 32' W Click for more
173924 CTD/STD cast 1978-09-05 07:30Z 58° 57' N, 12° 32' W Click for more
173936 CTD/STD cast 1978-09-05 07:50Z 58° 57' N, 12° 32' W Click for more
173948 CTD/STD cast 1978-09-05 08:10Z 58° 57' N, 12° 31' W Click for more
173961 CTD/STD cast 1978-09-05 08:30Z 58° 57' N, 12° 31' W Click for more
173973 CTD/STD cast 1978-09-05 08:50Z 58° 57' N, 12° 32' W Click for more
173985 CTD/STD cast 1978-09-05 09:10Z 58° 57' N, 12° 32' W Click for more
173997 CTD/STD cast 1978-09-05 09:30Z 58° 57' N, 12° 27' W Click for more
174000 CTD/STD cast 1978-09-05 09:50Z 58° 58' N, 12° 26' W Click for more
174012 CTD/STD cast 1978-09-05 10:50Z 58° 55' N, 12° 36' W Click for more
174024 CTD/STD cast 1978-09-05 11:10Z 58° 55' N, 12° 36' W Click for more
174036 CTD/STD cast 1978-09-05 11:30Z 58° 56' N, 12° 34' W Click for more
174048 CTD/STD cast 1978-09-05 11:50Z 58° 56' N, 12° 34' W Click for more
174061 CTD/STD cast 1978-09-05 12:10Z 58° 56' N, 12° 34' W Click for more
174073 CTD/STD cast 1978-09-05 12:30Z 58° 56' N, 12° 34' W Click for more
174085 CTD/STD cast 1978-09-05 13:10Z 58° 56' N, 12° 34' W Click for more
174097 CTD/STD cast 1978-09-05 13:30Z 58° 56' N, 12° 34' W Click for more
174104 CTD/STD cast 1978-09-05 13:50Z 58° 56' N, 12° 34' W Click for more
174116 CTD/STD cast 1978-09-05 14:10Z 58° 56' N, 12° 34' W Click for more
174128 CTD/STD cast 1978-09-05 14:30Z 58° 56' N, 12° 34' W Click for more
174141 CTD/STD cast 1978-09-05 14:50Z 58° 56' N, 12° 34' W Click for more
174153 CTD/STD cast 1978-09-05 15:10Z 58° 56' N, 12° 34' W Click for more
174165 CTD/STD cast 1978-09-05 15:30Z 58° 56' N, 12° 34' W Click for more
174177 CTD/STD cast 1978-09-05 15:50Z 58° 56' N, 12° 30' W Click for more
174189 CTD/STD cast 1978-09-05 20:00Z 58° 56' N, 12° 32' W Click for more
174190 CTD/STD cast 1978-09-05 20:20Z 58° 56' N, 12° 32' W Click for more
174208 CTD/STD cast 1978-09-05 20:40Z 58° 56' N, 12° 32' W Click for more
174221 CTD/STD cast 1978-09-05 21:00Z 58° 56' N, 12° 32' W Click for more
174233 CTD/STD cast 1978-09-05 21:20Z 58° 56' N, 12° 31' W Click for more
174245 CTD/STD cast 1978-09-05 21:40Z 58° 56' N, 12° 31' W Click for more
174257 CTD/STD cast 1978-09-05 22:00Z 58° 56' N, 12° 31' W Click for more
174269 CTD/STD cast 1978-09-05 22:20Z 58° 56' N, 12° 30' W Click for more
174270 CTD/STD cast 1978-09-05 22:40Z 58° 56' N, 12° 30' W Click for more
174282 CTD/STD cast 1978-09-05 23:00Z 58° 56' N, 12° 30' W Click for more
174294 CTD/STD cast 1978-09-05 23:40Z 58° 56' N, 12° 30' W Click for more
174301 CTD/STD cast 1978-09-06 00:00Z 58° 56' N, 12° 30' W Click for more
174313 CTD/STD cast 1978-09-06 00:20Z 58° 56' N, 12° 34' W Click for more
174325 CTD/STD cast 1978-09-06 00:40Z 58° 56' N, 12° 34' W Click for more
174337 CTD/STD cast 1978-09-06 01:00Z 58° 56' N, 12° 34' W Click for more
174349 CTD/STD cast 1978-09-06 01:20Z 58° 56' N, 12° 34' W Click for more
174350 CTD/STD cast 1978-09-06 01:40Z 58° 56' N, 12° 33' W Click for more
174362 CTD/STD cast 1978-09-06 02:00Z 58° 55' N, 12° 33' W Click for more
174374 CTD/STD cast 1978-09-06 02:20Z 58° 55' N, 12° 33' W Click for more
174386 CTD/STD cast 1978-09-06 02:40Z 58° 55' N, 12° 33' W Click for more
174398 CTD/STD cast 1978-09-06 03:00Z 58° 55' N, 12° 33' W Click for more
174405 CTD/STD cast 1978-09-06 03:20Z 58° 55' N, 12° 33' W Click for more
174417 CTD/STD cast 1978-09-06 03:40Z 58° 55' N, 12° 33' W Click for more
174429 CTD/STD cast 1978-09-06 04:00Z 58° 55' N, 12° 33' W Click for more
174430 CTD/STD cast 1978-09-06 04:20Z 58° 55' N, 12° 33' W Click for more
174442 CTD/STD cast 1978-09-06 04:40Z 58° 55' N, 12° 34' W Click for more
174454 CTD/STD cast 1978-09-06 05:00Z 58° 56' N, 12° 34' W Click for more
174466 CTD/STD cast 1978-09-06 05:20Z 58° 56' N, 12° 34' W Click for more
174478 CTD/STD cast 1978-09-06 05:40Z 58° 56' N, 12° 34' W Click for more
174491 CTD/STD cast 1978-09-06 06:00Z 58° 57' N, 12° 34' W Click for more
174509 CTD/STD cast 1978-09-06 06:20Z 58° 57' N, 12° 34' W Click for more
174510 CTD/STD cast 1978-09-06 06:40Z 58° 57' N, 12° 34' W Click for more
174522 CTD/STD cast 1978-09-06 07:00Z 58° 57' N, 12° 34' W Click for more
174534 CTD/STD cast 1978-09-06 07:20Z 58° 57' N, 12° 34' W Click for more
174546 CTD/STD cast 1978-09-06 07:40Z 58° 57' N, 12° 34' W Click for more
174558 CTD/STD cast 1978-09-06 19:15Z 58° 57' N, 12° 22' W Click for more
174571 CTD/STD cast 1978-09-06 19:40Z 58° 59' N, 12° 21' W Click for more
174583 CTD/STD cast 1978-09-06 20:05Z 59° 0' N, 12° 19' W Click for more
174595 CTD/STD cast 1978-09-06 20:30Z 59° 3' N, 12° 22' W Click for more
174602 CTD/STD cast 1978-09-06 22:55Z 59° 3' N, 12° 27' W Click for more
174614 CTD/STD cast 1978-09-06 21:22Z 59° 3' N, 12° 31' W Click for more
174626 CTD/STD cast 1978-09-06 21:48Z 59° 3' N, 12° 33' W Click for more
174638 CTD/STD cast 1978-09-06 22:17Z 59° 3' N, 12° 38' W Click for more
174651 CTD/STD cast 1978-09-06 22:41Z 59° 1' N, 12° 35' W Click for more
174663 CTD/STD cast 1978-09-06 23:04Z 59° 0' N, 12° 33' W Click for more
174675 CTD/STD cast 1978-09-06 23:28Z 58° 58' N, 12° 31' W Click for more
174687 CTD/STD cast 1978-09-06 23:54Z 58° 58' N, 12° 27' W Click for more
174699 CTD/STD cast 1978-09-07 00:23Z 58° 58' N, 12° 21' W Click for more
174706 CTD/STD cast 1978-09-07 00:57Z 58° 58' N, 12° 22' W Click for more
174718 CTD/STD cast 1978-09-07 01:26Z 58° 58' N, 12° 16' W Click for more
174731 CTD/STD cast 1978-09-07 01:52Z 59° 0' N, 12° 15' W Click for more
174743 CTD/STD cast 1978-09-07 02:22Z 59° 1' N, 12° 14' W Click for more
174755 CTD/STD cast 1978-09-07 02:50Z 59° 3' N, 12° 13' W Click for more
174767 CTD/STD cast 1978-09-07 03:20Z 59° 2' N, 12° 28' W Click for more
174779 CTD/STD cast 1978-09-07 03:45Z 59° 2' N, 12° 31' W Click for more
174780 CTD/STD cast 1978-09-07 04:13Z 59° 2' N, 12° 33' W Click for more
174792 CTD/STD cast 1978-09-07 04:40Z 59° 2' N, 12° 36' W Click for more
174811 CTD/STD cast 1978-09-07 05:07Z 59° 0' N, 12° 35' W Click for more
174823 CTD/STD cast 1978-09-07 05:35Z 58° 59' N, 12° 36' W Click for more
174835 CTD/STD cast 1978-09-07 06:07Z 58° 57' N, 12° 36' W Click for more
174847 CTD/STD cast 1978-09-07 06:32Z 58° 57' N, 12° 34' W Click for more
174859 CTD/STD cast 1978-09-07 07:00Z 58° 58' N, 12° 30' W Click for more
174860 CTD/STD cast 1978-09-07 07:18Z 58° 58' N, 12° 27' W Click for more
174872 CTD/STD cast 1978-09-07 07:40Z 58° 57' N, 12° 26' W Click for more
174884 CTD/STD cast 1978-09-07 15:00Z 59° 6' N, 12° 34' W Click for more
174896 CTD/STD cast 1978-09-07 15:30Z 59° 6' N, 12° 34' W Click for more
174903 CTD/STD cast 1978-09-07 16:00Z 59° 9' N, 12° 30' W Click for more
174915 CTD/STD cast 1978-09-07 16:30Z 59° 4' N, 12° 30' W Click for more
174927 CTD/STD cast 1978-09-07 17:00Z 59° 4' N, 12° 30' W Click for more
174939 CTD/STD cast 1978-09-07 17:30Z 59° 4' N, 12° 30' W Click for more
174940 CTD/STD cast 1978-09-07 18:00Z 59° 4' N, 12° 31' W Click for more
174952 CTD/STD cast 1978-09-07 19:30Z 59° 3' N, 12° 33' W Click for more
174964 CTD/STD cast 1978-09-07 20:01Z 59° 3' N, 12° 33' W Click for more
174976 CTD/STD cast 1978-09-07 20:30Z 59° 3' N, 12° 33' W Click for more
174988 CTD/STD cast 1978-09-07 21:00Z 59° 3' N, 12° 33' W Click for more
175003 CTD/STD cast 1978-09-07 21:30Z 59° 3' N, 12° 33' W Click for more
175015 CTD/STD cast 1978-09-07 22:00Z 59° 5' N, 12° 30' W Click for more
175027 CTD/STD cast 1978-09-07 22:30Z 59° 5' N, 12° 30' W Click for more
175039 CTD/STD cast 1978-09-07 23:00Z 59° 5' N, 12° 30' W Click for more
175040 CTD/STD cast 1978-09-07 23:30Z 59° 5' N, 12° 30' W Click for more
175052 CTD/STD cast 1978-09-08 00:00Z 59° 5' N, 12° 30' W Click for more
175064 CTD/STD cast 1978-09-08 00:30Z 59° 5' N, 12° 30' W Click for more
175076 CTD/STD cast 1978-09-08 01:00Z 59° 5' N, 12° 30' W Click for more
175088 CTD/STD cast 1978-09-08 01:30Z 59° 6' N, 12° 29' W Click for more
175107 CTD/STD cast 1978-09-08 02:00Z 59° 6' N, 12° 29' W Click for more
175119 CTD/STD cast 1978-09-08 02:30Z 59° 4' N, 12° 30' W Click for more
175120 CTD/STD cast 1978-09-08 03:00Z 59° 4' N, 12° 30' W Click for more
175132 CTD/STD cast 1978-09-08 03:30Z 59° 4' N, 12° 30' W Click for more
175144 CTD/STD cast 1978-09-08 04:00Z 59° 4' N, 12° 30' W Click for more
175156 CTD/STD cast 1978-09-08 04:30Z 59° 4' N, 12° 31' W Click for more
175168 CTD/STD cast 1978-09-08 05:00Z 59° 4' N, 12° 31' W Click for more
175181 CTD/STD cast 1978-09-08 05:30Z 59° 4' N, 12° 30' W Click for more
175193 CTD/STD cast 1978-09-08 06:00Z 59° 4' N, 12° 30' W Click for more
175200 CTD/STD cast 1978-09-08 06:30Z 59° 4' N, 12° 30' W Click for more
175212 CTD/STD cast 1978-09-08 07:00Z 59° 3' N, 12° 30' W Click for more
175224 CTD/STD cast 1978-09-08 07:30Z 59° 3' N, 12° 30' W Click for more
175236 CTD/STD cast 1978-09-08 08:00Z 59° 3' N, 12° 31' W Click for more
175248 CTD/STD cast 1978-09-08 08:30Z 59° 3' N, 12° 31' W Click for more
175261 CTD/STD cast 1978-09-08 09:00Z 59° 3' N, 12° 31' W Click for more
175273 CTD/STD cast 1978-09-08 10:00Z 59° 3' N, 12° 31' W Click for more
175285 CTD/STD cast 1978-09-08 10:30Z 59° 3' N, 12° 30' W Click for more
175304 CTD/STD cast 1978-09-08 11:00Z 59° 3' N, 12° 30' W Click for more
175316 CTD/STD cast 1978-09-08 12:00Z 59° 4' N, 12° 29' W Click for more
175328 CTD/STD cast 1978-09-08 12:30Z 59° 4' N, 12° 29' W Click for more
175341 CTD/STD cast 1978-09-08 13:00Z 59° 4' N, 12° 29' W Click for more
175353 CTD/STD cast 1978-09-08 13:30Z 59° 4' N, 12° 29' W Click for more
175365 CTD/STD cast 1978-09-08 14:00Z 59° 4' N, 12° 29' W Click for more
175377 CTD/STD cast 1978-09-08 15:00Z 59° 4' N, 12° 29' W Click for more
175389 CTD/STD cast 1978-09-08 15:30Z 59° 4' N, 12° 29' W Click for more

Project Database

No data currently held for this cruise in the BODC Project Database

References

Track Charts

No track charts currently available

Reports

No reports currently available